<?xml version='1.0' encoding='UTF-8'?>
<gpx version="1.1" creator="https://www.komoot.de" xmlns="http://www.topografix.com/GPX/1/1" xmlns:xsi="http://www.w3.org/2001/XMLSchema-instance" xsi:schemaLocation="http://www.topografix.com/GPX/1/1 http://www.topografix.com/GPX/1/1/gpx.xsd">
  <metadata>
    <name>43_670EggJungholz</name>
    <author>
      <link href="https://www.komoot.de">
        <text>komoot</text>
        <type>text/html</type>
      </link>
    </author>
  </metadata>
  <trk>
    <name>43_670EggJungholz</name>
    <trkseg>
      <trkpt lat="47.541576" lon="7.870664">
        <ele>341.421376</ele>
        <time>2021-11-07T12:56:09.568Z</time>
      </trkpt>
      <trkpt lat="47.541796" lon="7.871042">
        <ele>341.421376</ele>
        <time>2021-11-07T12:56:17.101Z</time>
      </trkpt>
      <trkpt lat="47.541953" lon="7.871286">
        <ele>341.421376</ele>
        <time>2021-11-07T12:56:22.031Z</time>
      </trkpt>
      <trkpt lat="47.542039" lon="7.871556">
        <ele>341.421376</ele>
        <time>2021-11-07T12:56:26.797Z</time>
      </trkpt>
      <trkpt lat="47.542067" lon="7.871664">
        <ele>341.421376</ele>
        <time>2021-11-07T12:56:28.409Z</time>
      </trkpt>
      <trkpt lat="47.542091" lon="7.871721">
        <ele>341.421376</ele>
        <time>2021-11-07T12:56:29.022Z</time>
      </trkpt>
      <trkpt lat="47.542218" lon="7.871866">
        <ele>342.070939</ele>
        <time>2021-11-07T12:56:34.502Z</time>
      </trkpt>
      <trkpt lat="47.542394" lon="7.872341">
        <ele>343.649972</ele>
        <time>2021-11-07T12:56:44.964Z</time>
      </trkpt>
      <trkpt lat="47.542436" lon="7.872494">
        <ele>344.131292</ele>
        <time>2021-11-07T12:56:48.350Z</time>
      </trkpt>
      <trkpt lat="47.542537" lon="7.872430">
        <ele>344.605519</ele>
        <time>2021-11-07T12:56:50.418Z</time>
      </trkpt>
      <trkpt lat="47.542714" lon="7.872334">
        <ele>345.419226</ele>
        <time>2021-11-07T12:56:57.571Z</time>
      </trkpt>
      <trkpt lat="47.542814" lon="7.872280">
        <ele>345.878709</ele>
        <time>2021-11-07T12:57:00.449Z</time>
      </trkpt>
      <trkpt lat="47.542919" lon="7.872226">
        <ele>346.358529</ele>
        <time>2021-11-07T12:57:04.289Z</time>
      </trkpt>
      <trkpt lat="47.543013" lon="7.872182">
        <ele>346.784099</ele>
        <time>2021-11-07T12:57:07.919Z</time>
      </trkpt>
      <trkpt lat="47.543233" lon="7.872082">
        <ele>347.777534</ele>
        <time>2021-11-07T12:57:15.017Z</time>
      </trkpt>
      <trkpt lat="47.543251" lon="7.872152">
        <ele>347.995820</ele>
        <time>2021-11-07T12:57:18.431Z</time>
      </trkpt>
      <trkpt lat="47.543332" lon="7.872237">
        <ele>348.424337</ele>
        <time>2021-11-07T12:57:21.841Z</time>
      </trkpt>
      <trkpt lat="47.544390" lon="7.872423">
        <ele>355.035776</ele>
        <time>2021-11-07T12:58:03.473Z</time>
      </trkpt>
      <trkpt lat="47.544883" lon="7.872555">
        <ele>358.332418</ele>
        <time>2021-11-07T12:58:25.816Z</time>
      </trkpt>
      <trkpt lat="47.545131" lon="7.872664">
        <ele>360.034634</ele>
        <time>2021-11-07T12:58:36.820Z</time>
      </trkpt>
      <trkpt lat="47.545375" lon="7.872836">
        <ele>361.785257</ele>
        <time>2021-11-07T12:58:47.761Z</time>
      </trkpt>
      <trkpt lat="47.545478" lon="7.872968">
        <ele>362.650320</ele>
        <time>2021-11-07T12:58:54.568Z</time>
      </trkpt>
      <trkpt lat="47.545515" lon="7.873015">
        <ele>362.959903</ele>
        <time>2021-11-07T12:58:56.525Z</time>
      </trkpt>
      <trkpt lat="47.545746" lon="7.873302">
        <ele>364.874863</ele>
        <time>2021-11-07T12:59:09.724Z</time>
      </trkpt>
      <trkpt lat="47.545934" lon="7.873549">
        <ele>366.470949</ele>
        <time>2021-11-07T12:59:19.824Z</time>
      </trkpt>
      <trkpt lat="47.546077" lon="7.873763">
        <ele>367.762026</ele>
        <time>2021-11-07T12:59:29.021Z</time>
      </trkpt>
      <trkpt lat="47.546135" lon="7.873859">
        <ele>368.314418</ele>
        <time>2021-11-07T12:59:32.260Z</time>
      </trkpt>
      <trkpt lat="47.546309" lon="7.874154">
        <ele>369.994072</ele>
        <time>2021-11-07T12:59:43.374Z</time>
      </trkpt>
      <trkpt lat="47.547126" lon="7.875801">
        <ele>375.730568</ele>
        <time>2021-11-07T13:00:29.135Z</time>
      </trkpt>
      <trkpt lat="47.547574" lon="7.876801">
        <ele>378.384585</ele>
        <time>2021-11-07T13:00:48.131Z</time>
      </trkpt>
      <trkpt lat="47.547992" lon="7.877974">
        <ele>377.103640</ele>
        <time>2021-11-07T13:01:00.932Z</time>
      </trkpt>
      <trkpt lat="47.548234" lon="7.878638">
        <ele>376.374912</ele>
        <time>2021-11-07T13:01:06.244Z</time>
      </trkpt>
      <trkpt lat="47.548422" lon="7.878959">
        <ele>375.964497</ele>
        <time>2021-11-07T13:01:09.087Z</time>
      </trkpt>
      <trkpt lat="47.548718" lon="7.879258">
        <ele>374.730488</ele>
        <time>2021-11-07T13:01:12.625Z</time>
      </trkpt>
      <trkpt lat="47.549140" lon="7.879391">
        <ele>372.898104</ele>
        <time>2021-11-07T13:01:16.812Z</time>
      </trkpt>
      <trkpt lat="47.549318" lon="7.879398">
        <ele>372.141852</ele>
        <time>2021-11-07T13:01:18.439Z</time>
      </trkpt>
      <trkpt lat="47.549327" lon="7.879547">
        <ele>371.713020</ele>
        <time>2021-11-07T13:01:19.425Z</time>
      </trkpt>
      <trkpt lat="47.549726" lon="7.880786">
        <ele>367.845712</ele>
        <time>2021-11-07T13:01:28.360Z</time>
      </trkpt>
      <trkpt lat="47.549927" lon="7.881490">
        <ele>366.025283</ele>
        <time>2021-11-07T13:01:33.392Z</time>
      </trkpt>
      <trkpt lat="47.550234" lon="7.883221">
        <ele>361.743842</ele>
        <time>2021-11-07T13:01:45.792Z</time>
      </trkpt>
      <trkpt lat="47.550332" lon="7.884727">
        <ele>357.158149</ele>
        <time>2021-11-07T13:01:55.637Z</time>
      </trkpt>
      <trkpt lat="47.550391" lon="7.885109">
        <ele>355.970421</ele>
        <time>2021-11-07T13:01:58.169Z</time>
      </trkpt>
      <trkpt lat="47.550548" lon="7.885799">
        <ele>353.763470</ele>
        <time>2021-11-07T13:02:02.774Z</time>
      </trkpt>
      <trkpt lat="47.550677" lon="7.886476">
        <ele>351.017820</ele>
        <time>2021-11-07T13:02:07.204Z</time>
      </trkpt>
      <trkpt lat="47.550758" lon="7.887295">
        <ele>347.784548</ele>
        <time>2021-11-07T13:02:12.346Z</time>
      </trkpt>
      <trkpt lat="47.550789" lon="7.887816">
        <ele>345.741571</ele>
        <time>2021-11-07T13:02:15.578Z</time>
      </trkpt>
      <trkpt lat="47.550831" lon="7.888611">
        <ele>342.574524</ele>
        <time>2021-11-07T13:02:20.534Z</time>
      </trkpt>
      <trkpt lat="47.550833" lon="7.889069">
        <ele>340.655777</ele>
        <time>2021-11-07T13:02:23.344Z</time>
      </trkpt>
      <trkpt lat="47.550915" lon="7.890600">
        <ele>334.221775</ele>
        <time>2021-11-07T13:02:32.737Z</time>
      </trkpt>
      <trkpt lat="47.550904" lon="7.891725">
        <ele>330.584767</ele>
        <time>2021-11-07T13:02:39.741Z</time>
      </trkpt>
      <trkpt lat="47.550892" lon="7.893176">
        <ele>326.952782</ele>
        <time>2021-11-07T13:02:49.353Z</time>
      </trkpt>
      <trkpt lat="47.550908" lon="7.894308">
        <ele>325.052625</ele>
        <time>2021-11-07T13:02:58.558Z</time>
      </trkpt>
      <trkpt lat="47.550878" lon="7.895158">
        <ele>324.349747</ele>
        <time>2021-11-07T13:03:05.743Z</time>
      </trkpt>
      <trkpt lat="47.550838" lon="7.895509">
        <ele>324.055793</ele>
        <time>2021-11-07T13:03:08.907Z</time>
      </trkpt>
      <trkpt lat="47.550660" lon="7.896255">
        <ele>323.402392</ele>
        <time>2021-11-07T13:03:15.395Z</time>
      </trkpt>
      <trkpt lat="47.550639" lon="7.896345">
        <ele>323.323755</ele>
        <time>2021-11-07T13:03:16.583Z</time>
      </trkpt>
      <trkpt lat="47.550648" lon="7.896481">
        <ele>323.066996</ele>
        <time>2021-11-07T13:03:17.538Z</time>
      </trkpt>
      <trkpt lat="47.550819" lon="7.898109">
        <ele>319.764545</ele>
        <time>2021-11-07T13:03:29.286Z</time>
      </trkpt>
      <trkpt lat="47.550801" lon="7.900244">
        <ele>314.419126</ele>
        <time>2021-11-07T13:03:43.123Z</time>
      </trkpt>
      <trkpt lat="47.550769" lon="7.901362">
        <ele>311.214457</ele>
        <time>2021-11-07T13:03:50.395Z</time>
      </trkpt>
      <trkpt lat="47.550757" lon="7.901591">
        <ele>310.556659</ele>
        <time>2021-11-07T13:03:52.531Z</time>
      </trkpt>
      <trkpt lat="47.550688" lon="7.902451">
        <ele>308.386086</ele>
        <time>2021-11-07T13:04:00.965Z</time>
      </trkpt>
      <trkpt lat="47.550498" lon="7.903445">
        <ele>305.832530</ele>
        <time>2021-11-07T13:04:11.215Z</time>
      </trkpt>
      <trkpt lat="47.550302" lon="7.904164">
        <ele>303.915849</ele>
        <time>2021-11-07T13:04:18.475Z</time>
      </trkpt>
      <trkpt lat="47.550025" lon="7.904774">
        <ele>302.140233</ele>
        <time>2021-11-07T13:04:25.400Z</time>
      </trkpt>
      <trkpt lat="47.549868" lon="7.905010">
        <ele>301.341810</ele>
        <time>2021-11-07T13:04:28.531Z</time>
      </trkpt>
      <trkpt lat="47.549867" lon="7.905155">
        <ele>300.992416</ele>
        <time>2021-11-07T13:04:29.928Z</time>
      </trkpt>
      <trkpt lat="47.550067" lon="7.905245">
        <ele>300.246232</ele>
        <time>2021-11-07T13:04:32.853Z</time>
      </trkpt>
      <trkpt lat="47.550283" lon="7.905413">
        <ele>299.375344</ele>
        <time>2021-11-07T13:04:36.303Z</time>
      </trkpt>
      <trkpt lat="47.550497" lon="7.905558">
        <ele>298.535290</ele>
        <time>2021-11-07T13:04:39.662Z</time>
      </trkpt>
      <trkpt lat="47.549539" lon="7.908625">
        <ele>293.044149</ele>
        <time>2021-11-07T13:05:04.104Z</time>
      </trkpt>
      <trkpt lat="47.549520" lon="7.908678">
        <ele>292.990660</ele>
        <time>2021-11-07T13:05:04.607Z</time>
      </trkpt>
      <trkpt lat="47.549318" lon="7.909348">
        <ele>292.336617</ele>
        <time>2021-11-07T13:05:10.583Z</time>
      </trkpt>
      <trkpt lat="47.549195" lon="7.909756">
        <ele>291.938338</ele>
        <time>2021-11-07T13:05:14.250Z</time>
      </trkpt>
      <trkpt lat="47.549102" lon="7.910058">
        <ele>291.642470</ele>
        <time>2021-11-07T13:05:16.945Z</time>
      </trkpt>
      <trkpt lat="47.549012" lon="7.910340">
        <ele>291.364438</ele>
        <time>2021-11-07T13:05:19.463Z</time>
      </trkpt>
      <trkpt lat="47.548412" lon="7.912168">
        <ele>289.834868</ele>
        <time>2021-11-07T13:05:35.794Z</time>
      </trkpt>
      <trkpt lat="47.548027" lon="7.913334">
        <ele>288.984309</ele>
        <time>2021-11-07T13:05:46.555Z</time>
      </trkpt>
      <trkpt lat="47.547994" lon="7.913433">
        <ele>288.969626</ele>
        <time>2021-11-07T13:05:47.475Z</time>
      </trkpt>
      <trkpt lat="47.547423" lon="7.915080">
        <ele>288.723400</ele>
        <time>2021-11-07T13:06:04.964Z</time>
      </trkpt>
      <trkpt lat="47.547113" lon="7.915971">
        <ele>288.791432</ele>
        <time>2021-11-07T13:06:15.602Z</time>
      </trkpt>
      <trkpt lat="47.547091" lon="7.916039">
        <ele>288.819376</ele>
        <time>2021-11-07T13:06:16.652Z</time>
      </trkpt>
      <trkpt lat="47.547032" lon="7.916218">
        <ele>288.893195</ele>
        <time>2021-11-07T13:06:18.922Z</time>
      </trkpt>
      <trkpt lat="47.546821" lon="7.916867">
        <ele>289.160142</ele>
        <time>2021-11-07T13:06:27.337Z</time>
      </trkpt>
      <trkpt lat="47.546262" lon="7.919081">
        <ele>289.851373</ele>
        <time>2021-11-07T13:06:54.999Z</time>
      </trkpt>
      <trkpt lat="47.546128" lon="7.919617">
        <ele>289.966658</ele>
        <time>2021-11-07T13:07:00.427Z</time>
      </trkpt>
      <trkpt lat="47.545973" lon="7.920313">
        <ele>290.114481</ele>
        <time>2021-11-07T13:07:07.846Z</time>
      </trkpt>
      <trkpt lat="47.545913" lon="7.920765">
        <ele>290.350608</ele>
        <time>2021-11-07T13:07:12.604Z</time>
      </trkpt>
      <trkpt lat="47.545881" lon="7.921096">
        <ele>290.664415</ele>
        <time>2021-11-07T13:07:16.571Z</time>
      </trkpt>
      <trkpt lat="47.545810" lon="7.921755">
        <ele>291.290703</ele>
        <time>2021-11-07T13:07:25.181Z</time>
      </trkpt>
      <trkpt lat="47.545778" lon="7.921947">
        <ele>291.476302</ele>
        <time>2021-11-07T13:07:28.134Z</time>
      </trkpt>
      <trkpt lat="47.545714" lon="7.922249">
        <ele>291.773364</ele>
        <time>2021-11-07T13:07:31.988Z</time>
      </trkpt>
      <trkpt lat="47.545699" lon="7.922325">
        <ele>291.847675</ele>
        <time>2021-11-07T13:07:33.185Z</time>
      </trkpt>
      <trkpt lat="47.545690" lon="7.922369">
        <ele>291.890823</ele>
        <time>2021-11-07T13:07:34.257Z</time>
      </trkpt>
      <trkpt lat="47.545641" lon="7.922610">
        <ele>292.127035</ele>
        <time>2021-11-07T13:07:37.612Z</time>
      </trkpt>
      <trkpt lat="47.545587" lon="7.922895">
        <ele>292.404841</ele>
        <time>2021-11-07T13:07:42.444Z</time>
      </trkpt>
      <trkpt lat="47.545553" lon="7.923142">
        <ele>292.641418</ele>
        <time>2021-11-07T13:07:46.055Z</time>
      </trkpt>
      <trkpt lat="47.545536" lon="7.923407">
        <ele>293.266448</ele>
        <time>2021-11-07T13:07:50.931Z</time>
      </trkpt>
      <trkpt lat="47.545521" lon="7.923709">
        <ele>294.030265</ele>
        <time>2021-11-07T13:07:56.097Z</time>
      </trkpt>
      <trkpt lat="47.545481" lon="7.924396">
        <ele>295.769574</ele>
        <time>2021-11-07T13:08:10.701Z</time>
      </trkpt>
      <trkpt lat="47.545466" lon="7.924880">
        <ele>296.991691</ele>
        <time>2021-11-07T13:08:22.007Z</time>
      </trkpt>
      <trkpt lat="47.545446" lon="7.925350">
        <ele>298.179563</ele>
        <time>2021-11-07T13:08:32.382Z</time>
      </trkpt>
      <trkpt lat="47.545417" lon="7.925848">
        <ele>299.416078</ele>
        <time>2021-11-07T13:08:42.861Z</time>
      </trkpt>
      <trkpt lat="47.545409" lon="7.926773">
        <ele>300.620792</ele>
        <time>2021-11-07T13:09:00.062Z</time>
      </trkpt>
      <trkpt lat="47.545407" lon="7.927001">
        <ele>300.917739</ele>
        <time>2021-11-07T13:09:03.871Z</time>
      </trkpt>
      <trkpt lat="47.545406" lon="7.927306">
        <ele>301.314941</ele>
        <time>2021-11-07T13:09:08.475Z</time>
      </trkpt>
      <trkpt lat="47.545421" lon="7.927686">
        <ele>301.810656</ele>
        <time>2021-11-07T13:09:14.011Z</time>
      </trkpt>
      <trkpt lat="47.545475" lon="7.928419">
        <ele>302.770900</ele>
        <time>2021-11-07T13:09:23.329Z</time>
      </trkpt>
      <trkpt lat="47.545563" lon="7.929641">
        <ele>301.598719</ele>
        <time>2021-11-07T13:09:33.208Z</time>
      </trkpt>
      <trkpt lat="47.545661" lon="7.930955">
        <ele>300.161389</ele>
        <time>2021-11-07T13:09:42.604Z</time>
      </trkpt>
      <trkpt lat="47.545696" lon="7.931497">
        <ele>299.711924</ele>
        <time>2021-11-07T13:09:46.573Z</time>
      </trkpt>
      <trkpt lat="47.545721" lon="7.931992">
        <ele>299.367573</ele>
        <time>2021-11-07T13:09:50.365Z</time>
      </trkpt>
      <trkpt lat="47.545724" lon="7.932758">
        <ele>298.836174</ele>
        <time>2021-11-07T13:09:56.575Z</time>
      </trkpt>
      <trkpt lat="47.545702" lon="7.933290">
        <ele>298.466423</ele>
        <time>2021-11-07T13:10:01.218Z</time>
      </trkpt>
      <trkpt lat="47.545674" lon="7.933625">
        <ele>298.232251</ele>
        <time>2021-11-07T13:10:04.418Z</time>
      </trkpt>
      <trkpt lat="47.545457" lon="7.935110">
        <ele>299.094728</ele>
        <time>2021-11-07T13:10:22.553Z</time>
      </trkpt>
      <trkpt lat="47.545074" lon="7.936484">
        <ele>300.254374</ele>
        <time>2021-11-07T13:10:44.080Z</time>
      </trkpt>
      <trkpt lat="47.544903" lon="7.936917">
        <ele>300.853120</ele>
        <time>2021-11-07T13:10:51.397Z</time>
      </trkpt>
      <trkpt lat="47.544705" lon="7.937395">
        <ele>301.522481</ele>
        <time>2021-11-07T13:10:59.581Z</time>
      </trkpt>
      <trkpt lat="47.544472" lon="7.937932">
        <ele>302.284396</ele>
        <time>2021-11-07T13:11:08.988Z</time>
      </trkpt>
      <trkpt lat="47.543826" lon="7.939433">
        <ele>304.330099</ele>
        <time>2021-11-07T13:11:35.869Z</time>
      </trkpt>
      <trkpt lat="47.543435" lon="7.940670">
        <ele>305.851230</ele>
        <time>2021-11-07T13:11:55.830Z</time>
      </trkpt>
      <trkpt lat="47.543161" lon="7.942213">
        <ele>306.488316</ele>
        <time>2021-11-07T13:12:16.679Z</time>
      </trkpt>
      <trkpt lat="47.543007" lon="7.943867">
        <ele>306.423340</ele>
        <time>2021-11-07T13:12:32.223Z</time>
      </trkpt>
      <trkpt lat="47.542913" lon="7.945267">
        <ele>304.591799</ele>
        <time>2021-11-07T13:12:42.989Z</time>
      </trkpt>
      <trkpt lat="47.542872" lon="7.945781">
        <ele>303.918008</ele>
        <time>2021-11-07T13:12:46.583Z</time>
      </trkpt>
      <trkpt lat="47.542875" lon="7.946089">
        <ele>303.517005</ele>
        <time>2021-11-07T13:12:48.711Z</time>
      </trkpt>
      <trkpt lat="47.542902" lon="7.946514">
        <ele>302.903463</ele>
        <time>2021-11-07T13:12:51.579Z</time>
      </trkpt>
      <trkpt lat="47.542943" lon="7.946806">
        <ele>302.454688</ele>
        <time>2021-11-07T13:12:53.600Z</time>
      </trkpt>
      <trkpt lat="47.542974" lon="7.946965">
        <ele>302.205662</ele>
        <time>2021-11-07T13:12:54.839Z</time>
      </trkpt>
      <trkpt lat="47.542979" lon="7.946989">
        <ele>302.167869</ele>
        <time>2021-11-07T13:12:54.995Z</time>
      </trkpt>
      <trkpt lat="47.543007" lon="7.947104">
        <ele>301.983917</ele>
        <time>2021-11-07T13:12:55.862Z</time>
      </trkpt>
      <trkpt lat="47.543087" lon="7.947317">
        <ele>301.617148</ele>
        <time>2021-11-07T13:12:57.561Z</time>
      </trkpt>
      <trkpt lat="47.543191" lon="7.947615">
        <ele>301.112370</ele>
        <time>2021-11-07T13:13:00.069Z</time>
      </trkpt>
      <trkpt lat="47.543191" lon="7.947615">
        <ele>301.112370</ele>
        <time>2021-11-07T13:13:00.075Z</time>
      </trkpt>
      <trkpt lat="47.543242" lon="7.947745">
        <ele>300.886125</ele>
        <time>2021-11-07T13:13:01.204Z</time>
      </trkpt>
      <trkpt lat="47.543273" lon="7.947816">
        <ele>300.758893</ele>
        <time>2021-11-07T13:13:01.839Z</time>
      </trkpt>
      <trkpt lat="47.543358" lon="7.947967">
        <ele>300.463052</ele>
        <time>2021-11-07T13:13:03.324Z</time>
      </trkpt>
      <trkpt lat="47.543455" lon="7.948127">
        <ele>300.139462</ele>
        <time>2021-11-07T13:13:04.935Z</time>
      </trkpt>
      <trkpt lat="47.543532" lon="7.948214">
        <ele>299.923601</ele>
        <time>2021-11-07T13:13:06.029Z</time>
      </trkpt>
      <trkpt lat="47.543579" lon="7.948287">
        <ele>299.771808</ele>
        <time>2021-11-07T13:13:06.819Z</time>
      </trkpt>
      <trkpt lat="47.543760" lon="7.948548">
        <ele>299.327545</ele>
        <time>2021-11-07T13:13:09.668Z</time>
      </trkpt>
      <trkpt lat="47.543864" lon="7.948694">
        <ele>299.340091</ele>
        <time>2021-11-07T13:13:11.411Z</time>
      </trkpt>
      <trkpt lat="47.544239" lon="7.949202">
        <ele>299.384586</ele>
        <time>2021-11-07T13:13:18.608Z</time>
      </trkpt>
      <trkpt lat="47.544521" lon="7.949558">
        <ele>299.417029</ele>
        <time>2021-11-07T13:13:24.781Z</time>
      </trkpt>
      <trkpt lat="47.544901" lon="7.950044">
        <ele>299.460988</ele>
        <time>2021-11-07T13:13:33.939Z</time>
      </trkpt>
      <trkpt lat="47.545166" lon="7.950366">
        <ele>299.492701</ele>
        <time>2021-11-07T13:13:40.269Z</time>
      </trkpt>
      <trkpt lat="47.545434" lon="7.950668">
        <ele>299.526988</ele>
        <time>2021-11-07T13:13:46.054Z</time>
      </trkpt>
      <trkpt lat="47.545542" lon="7.950842">
        <ele>299.543235</ele>
        <time>2021-11-07T13:13:48.537Z</time>
      </trkpt>
      <trkpt lat="47.545667" lon="7.950979">
        <ele>299.559068</ele>
        <time>2021-11-07T13:13:51.074Z</time>
      </trkpt>
      <trkpt lat="47.545737" lon="7.951055">
        <ele>299.567905</ele>
        <time>2021-11-07T13:13:52.346Z</time>
      </trkpt>
      <trkpt lat="47.545876" lon="7.951233">
        <ele>299.586614</ele>
        <time>2021-11-07T13:13:55.090Z</time>
      </trkpt>
      <trkpt lat="47.546112" lon="7.951485">
        <ele>299.616237</ele>
        <time>2021-11-07T13:13:59.223Z</time>
      </trkpt>
      <trkpt lat="47.546164" lon="7.951520">
        <ele>299.622053</ele>
        <time>2021-11-07T13:14:00.062Z</time>
      </trkpt>
      <trkpt lat="47.546212" lon="7.951535">
        <ele>299.627048</ele>
        <time>2021-11-07T13:14:00.776Z</time>
      </trkpt>
      <trkpt lat="47.546231" lon="7.951558">
        <ele>299.629547</ele>
        <time>2021-11-07T13:14:01.093Z</time>
      </trkpt>
      <trkpt lat="47.546421" lon="7.951793">
        <ele>299.654750</ele>
        <time>2021-11-07T13:14:04.397Z</time>
      </trkpt>
      <trkpt lat="47.546634" lon="7.952024">
        <ele>299.590596</ele>
        <time>2021-11-07T13:14:07.826Z</time>
      </trkpt>
      <trkpt lat="47.546695" lon="7.952091">
        <ele>299.559062</ele>
        <time>2021-11-07T13:14:08.790Z</time>
      </trkpt>
      <trkpt lat="47.546776" lon="7.952185">
        <ele>299.516334</ele>
        <time>2021-11-07T13:14:10.140Z</time>
      </trkpt>
      <trkpt lat="47.546935" lon="7.952372">
        <ele>299.432029</ele>
        <time>2021-11-07T13:14:12.788Z</time>
      </trkpt>
      <trkpt lat="47.547090" lon="7.952543">
        <ele>299.351776</ele>
        <time>2021-11-07T13:14:15.399Z</time>
      </trkpt>
      <trkpt lat="47.547400" lon="7.952910">
        <ele>299.186988</ele>
        <time>2021-11-07T13:14:20.806Z</time>
      </trkpt>
      <trkpt lat="47.547458" lon="7.952975">
        <ele>299.156787</ele>
        <time>2021-11-07T13:14:21.795Z</time>
      </trkpt>
      <trkpt lat="47.547550" lon="7.953078">
        <ele>299.108900</ele>
        <time>2021-11-07T13:14:23.407Z</time>
      </trkpt>
      <trkpt lat="47.547624" lon="7.953160">
        <ele>299.070526</ele>
        <time>2021-11-07T13:14:24.666Z</time>
      </trkpt>
      <trkpt lat="47.547797" lon="7.953355">
        <ele>298.980255</ele>
        <time>2021-11-07T13:14:27.679Z</time>
      </trkpt>
      <trkpt lat="47.547871" lon="7.953437">
        <ele>298.941880</ele>
        <time>2021-11-07T13:14:28.978Z</time>
      </trkpt>
      <trkpt lat="47.547994" lon="7.953584">
        <ele>298.838527</ele>
        <time>2021-11-07T13:14:31.152Z</time>
      </trkpt>
      <trkpt lat="47.548115" lon="7.953729">
        <ele>298.713730</ele>
        <time>2021-11-07T13:14:33.306Z</time>
      </trkpt>
      <trkpt lat="47.548251" lon="7.953895">
        <ele>298.572427</ele>
        <time>2021-11-07T13:14:35.704Z</time>
      </trkpt>
      <trkpt lat="47.548335" lon="7.953779">
        <ele>298.480343</ele>
        <time>2021-11-07T13:14:37.609Z</time>
      </trkpt>
      <trkpt lat="47.549146" lon="7.953348">
        <ele>297.789428</ele>
        <time>2021-11-07T13:14:53.169Z</time>
      </trkpt>
      <trkpt lat="47.549296" lon="7.953268">
        <ele>297.661587</ele>
        <time>2021-11-07T13:14:55.933Z</time>
      </trkpt>
      <trkpt lat="47.549442" lon="7.953195">
        <ele>297.538022</ele>
        <time>2021-11-07T13:14:58.488Z</time>
      </trkpt>
      <trkpt lat="47.549640" lon="7.953086">
        <ele>297.216180</ele>
        <time>2021-11-07T13:15:02.196Z</time>
      </trkpt>
      <trkpt lat="47.549673" lon="7.953076">
        <ele>297.150248</ele>
        <time>2021-11-07T13:15:02.756Z</time>
      </trkpt>
      <trkpt lat="47.549687" lon="7.953071">
        <ele>297.122060</ele>
        <time>2021-11-07T13:15:02.948Z</time>
      </trkpt>
      <trkpt lat="47.550567" lon="7.953069">
        <ele>295.399530</ele>
        <time>2021-11-07T13:15:17.121Z</time>
      </trkpt>
      <trkpt lat="47.550656" lon="7.953072">
        <ele>295.225275</ele>
        <time>2021-11-07T13:15:18.435Z</time>
      </trkpt>
      <trkpt lat="47.550967" lon="7.953063">
        <ele>294.616402</ele>
        <time>2021-11-07T13:15:23.197Z</time>
      </trkpt>
      <trkpt lat="47.551254" lon="7.952986">
        <ele>294.045487</ele>
        <time>2021-11-07T13:15:27.586Z</time>
      </trkpt>
      <trkpt lat="47.551295" lon="7.952900">
        <ele>293.911709</ele>
        <time>2021-11-07T13:15:28.650Z</time>
      </trkpt>
      <trkpt lat="47.551334" lon="7.952777">
        <ele>293.752356</ele>
        <time>2021-11-07T13:15:31.325Z</time>
      </trkpt>
      <trkpt lat="47.551339" lon="7.952761">
        <ele>293.731681</ele>
        <time>2021-11-07T13:15:31.695Z</time>
      </trkpt>
      <trkpt lat="47.551381" lon="7.952341">
        <ele>293.233813</ele>
        <time>2021-11-07T13:15:40.477Z</time>
      </trkpt>
      <trkpt lat="47.551506" lon="7.950255">
        <ele>290.830189</ele>
        <time>2021-11-07T13:16:26.013Z</time>
      </trkpt>
      <trkpt lat="47.551525" lon="7.950027">
        <ele>290.837328</ele>
        <time>2021-11-07T13:16:31.498Z</time>
      </trkpt>
      <trkpt lat="47.551581" lon="7.949830">
        <ele>290.843970</ele>
        <time>2021-11-07T13:16:36.660Z</time>
      </trkpt>
      <trkpt lat="47.551673" lon="7.949634">
        <ele>290.851390</ele>
        <time>2021-11-07T13:16:42.682Z</time>
      </trkpt>
      <trkpt lat="47.551794" lon="7.949387">
        <ele>290.860874</ele>
        <time>2021-11-07T13:16:49.979Z</time>
      </trkpt>
      <trkpt lat="47.552010" lon="7.949039">
        <ele>290.875566</ele>
        <time>2021-11-07T13:17:02.019Z</time>
      </trkpt>
      <trkpt lat="47.552049" lon="7.948982">
        <ele>290.878089</ele>
        <time>2021-11-07T13:17:04.170Z</time>
      </trkpt>
      <trkpt lat="47.552094" lon="7.948926">
        <ele>290.880794</ele>
        <time>2021-11-07T13:17:06.567Z</time>
      </trkpt>
      <trkpt lat="47.552202" lon="7.949003">
        <ele>290.886313</ele>
        <time>2021-11-07T13:17:11.319Z</time>
      </trkpt>
      <trkpt lat="47.552351" lon="7.949099">
        <ele>290.893794</ele>
        <time>2021-11-07T13:17:17.529Z</time>
      </trkpt>
      <trkpt lat="47.552382" lon="7.949119">
        <ele>290.895351</ele>
        <time>2021-11-07T13:17:18.995Z</time>
      </trkpt>
      <trkpt lat="47.552518" lon="7.949236">
        <ele>290.902592</ele>
        <time>2021-11-07T13:17:25.461Z</time>
      </trkpt>
      <trkpt lat="47.552567" lon="7.949184">
        <ele>290.905367</ele>
        <time>2021-11-07T13:17:27.966Z</time>
      </trkpt>
      <trkpt lat="47.552910" lon="7.948820">
        <ele>291.080451</ele>
        <time>2021-11-07T13:17:45.207Z</time>
      </trkpt>
      <trkpt lat="47.552910" lon="7.948820">
        <ele>291.080451</ele>
        <time>2021-11-07T13:17:45.218Z</time>
      </trkpt>
      <trkpt lat="47.553614" lon="7.948186">
        <ele>291.568021</ele>
        <time>2021-11-07T13:18:00.486Z</time>
      </trkpt>
      <trkpt lat="47.554318" lon="7.947551">
        <ele>292.160017</ele>
        <time>2021-11-07T13:18:15.760Z</time>
      </trkpt>
      <trkpt lat="47.554372" lon="7.947483">
        <ele>292.256840</ele>
        <time>2021-11-07T13:18:18.531Z</time>
      </trkpt>
      <trkpt lat="47.554411" lon="7.947434">
        <ele>292.326702</ele>
        <time>2021-11-07T13:18:20.559Z</time>
      </trkpt>
      <trkpt lat="47.554446" lon="7.947485">
        <ele>292.393770</ele>
        <time>2021-11-07T13:18:21.427Z</time>
      </trkpt>
      <trkpt lat="47.554475" lon="7.947529">
        <ele>292.450479</ele>
        <time>2021-11-07T13:18:22.169Z</time>
      </trkpt>
      <trkpt lat="47.554517" lon="7.947576">
        <ele>292.522389</ele>
        <time>2021-11-07T13:18:23.085Z</time>
      </trkpt>
      <trkpt lat="47.554563" lon="7.947632">
        <ele>292.603729</ele>
        <time>2021-11-07T13:18:24.225Z</time>
      </trkpt>
      <trkpt lat="47.554614" lon="7.947707">
        <ele>292.701901</ele>
        <time>2021-11-07T13:18:25.519Z</time>
      </trkpt>
      <trkpt lat="47.554731" lon="7.947945">
        <ele>292.973402</ele>
        <time>2021-11-07T13:18:29.136Z</time>
      </trkpt>
      <trkpt lat="47.554749" lon="7.947993">
        <ele>293.024035</ele>
        <time>2021-11-07T13:18:29.879Z</time>
      </trkpt>
      <trkpt lat="47.554810" lon="7.947963">
        <ele>293.111848</ele>
        <time>2021-11-07T13:18:31.405Z</time>
      </trkpt>
      <trkpt lat="47.554903" lon="7.947916">
        <ele>293.246098</ele>
        <time>2021-11-07T13:18:33.438Z</time>
      </trkpt>
      <trkpt lat="47.555286" lon="7.947750">
        <ele>293.791305</ele>
        <time>2021-11-07T13:18:41.926Z</time>
      </trkpt>
      <trkpt lat="47.555306" lon="7.947738">
        <ele>293.820785</ele>
        <time>2021-11-07T13:18:42.372Z</time>
      </trkpt>
      <trkpt lat="47.555379" lon="7.947702">
        <ele>293.925901</ele>
        <time>2021-11-07T13:18:43.964Z</time>
      </trkpt>
      <trkpt lat="47.555417" lon="7.947683">
        <ele>293.980696</ele>
        <time>2021-11-07T13:18:44.823Z</time>
      </trkpt>
      <trkpt lat="47.555582" lon="7.947589">
        <ele>294.222217</ele>
        <time>2021-11-07T13:18:49.150Z</time>
      </trkpt>
      <trkpt lat="47.555636" lon="7.947544">
        <ele>294.306863</ele>
        <time>2021-11-07T13:18:50.554Z</time>
      </trkpt>
      <trkpt lat="47.555751" lon="7.947427">
        <ele>294.540387</ele>
        <time>2021-11-07T13:18:53.709Z</time>
      </trkpt>
      <trkpt lat="47.555846" lon="7.947320">
        <ele>294.812998</ele>
        <time>2021-11-07T13:18:56.871Z</time>
      </trkpt>
      <trkpt lat="47.555912" lon="7.947254">
        <ele>294.994900</ele>
        <time>2021-11-07T13:18:58.659Z</time>
      </trkpt>
      <trkpt lat="47.556009" lon="7.947161">
        <ele>295.258841</ele>
        <time>2021-11-07T13:19:01.153Z</time>
      </trkpt>
      <trkpt lat="47.556050" lon="7.947125">
        <ele>295.367716</ele>
        <time>2021-11-07T13:19:02.251Z</time>
      </trkpt>
      <trkpt lat="47.556160" lon="7.947027">
        <ele>295.660938</ele>
        <time>2021-11-07T13:19:05.669Z</time>
      </trkpt>
      <trkpt lat="47.556716" lon="7.946585">
        <ele>297.102384</ele>
        <time>2021-11-07T13:19:20.499Z</time>
      </trkpt>
      <trkpt lat="47.556890" lon="7.946422">
        <ele>297.572665</ele>
        <time>2021-11-07T13:19:25.663Z</time>
      </trkpt>
      <trkpt lat="47.557026" lon="7.946287">
        <ele>297.946631</ele>
        <time>2021-11-07T13:19:29.555Z</time>
      </trkpt>
      <trkpt lat="47.557115" lon="7.946255">
        <ele>298.155854</ele>
        <time>2021-11-07T13:19:31.941Z</time>
      </trkpt>
      <trkpt lat="47.557303" lon="7.946078">
        <ele>298.738387</ele>
        <time>2021-11-07T13:19:37.150Z</time>
      </trkpt>
      <trkpt lat="47.557371" lon="7.946013">
        <ele>299.034824</ele>
        <time>2021-11-07T13:19:39.283Z</time>
      </trkpt>
      <trkpt lat="47.557460" lon="7.945924">
        <ele>299.428155</ele>
        <time>2021-11-07T13:19:41.980Z</time>
      </trkpt>
      <trkpt lat="47.557555" lon="7.945842">
        <ele>299.830906</ele>
        <time>2021-11-07T13:19:44.592Z</time>
      </trkpt>
      <trkpt lat="47.557631" lon="7.945782">
        <ele>300.146366</ele>
        <time>2021-11-07T13:19:46.622Z</time>
      </trkpt>
      <trkpt lat="47.557744" lon="7.945674">
        <ele>300.638955</ele>
        <time>2021-11-07T13:19:50.023Z</time>
      </trkpt>
      <trkpt lat="47.557910" lon="7.945625">
        <ele>301.259011</ele>
        <time>2021-11-07T13:19:54.411Z</time>
      </trkpt>
      <trkpt lat="47.558009" lon="7.945617">
        <ele>301.622217</ele>
        <time>2021-11-07T13:19:57.102Z</time>
      </trkpt>
      <trkpt lat="47.558102" lon="7.945615">
        <ele>301.962941</ele>
        <time>2021-11-07T13:19:59.687Z</time>
      </trkpt>
      <trkpt lat="47.558161" lon="7.945614">
        <ele>302.179090</ele>
        <time>2021-11-07T13:20:01.479Z</time>
      </trkpt>
      <trkpt lat="47.558415" lon="7.945666">
        <ele>303.118407</ele>
        <time>2021-11-07T13:20:09.294Z</time>
      </trkpt>
      <trkpt lat="47.558540" lon="7.945722">
        <ele>303.596790</ele>
        <time>2021-11-07T13:20:12.982Z</time>
      </trkpt>
      <trkpt lat="47.558608" lon="7.945765">
        <ele>303.867628</ele>
        <time>2021-11-07T13:20:15.899Z</time>
      </trkpt>
      <trkpt lat="47.558700" lon="7.945825">
        <ele>304.235849</ele>
        <time>2021-11-07T13:20:19.148Z</time>
      </trkpt>
      <trkpt lat="47.558739" lon="7.945644">
        <ele>304.705558</ele>
        <time>2021-11-07T13:20:23.380Z</time>
      </trkpt>
      <trkpt lat="47.558781" lon="7.945419">
        <ele>305.444048</ele>
        <time>2021-11-07T13:20:29.281Z</time>
      </trkpt>
      <trkpt lat="47.558967" lon="7.945068">
        <ele>307.725772</ele>
        <time>2021-11-07T13:20:40.517Z</time>
      </trkpt>
      <trkpt lat="47.559249" lon="7.944727">
        <ele>310.483345</ele>
        <time>2021-11-07T13:20:55.913Z</time>
      </trkpt>
      <trkpt lat="47.559263" lon="7.944710">
        <ele>310.620476</ele>
        <time>2021-11-07T13:20:57.488Z</time>
      </trkpt>
      <trkpt lat="47.559609" lon="7.944534">
        <ele>313.392006</ele>
        <time>2021-11-07T13:21:15.283Z</time>
      </trkpt>
      <trkpt lat="47.559774" lon="7.944500">
        <ele>314.654119</ele>
        <time>2021-11-07T13:21:22.754Z</time>
      </trkpt>
      <trkpt lat="47.559855" lon="7.944533">
        <ele>315.290567</ele>
        <time>2021-11-07T13:21:27.242Z</time>
      </trkpt>
      <trkpt lat="47.560106" lon="7.944624">
        <ele>317.248298</ele>
        <time>2021-11-07T13:21:39.971Z</time>
      </trkpt>
      <trkpt lat="47.560144" lon="7.944665">
        <ele>317.604422</ele>
        <time>2021-11-07T13:21:42.967Z</time>
      </trkpt>
      <trkpt lat="47.560288" lon="7.944850">
        <ele>319.042315</ele>
        <time>2021-11-07T13:21:53.029Z</time>
      </trkpt>
      <trkpt lat="47.560464" lon="7.945085">
        <ele>320.799977</ele>
        <time>2021-11-07T13:22:04.822Z</time>
      </trkpt>
      <trkpt lat="47.560632" lon="7.945223">
        <ele>322.225097</ele>
        <time>2021-11-07T13:22:13.570Z</time>
      </trkpt>
      <trkpt lat="47.560748" lon="7.945268">
        <ele>323.114733</ele>
        <time>2021-11-07T13:22:19.573Z</time>
      </trkpt>
      <trkpt lat="47.560884" lon="7.945275">
        <ele>324.124362</ele>
        <time>2021-11-07T13:22:25.614Z</time>
      </trkpt>
      <trkpt lat="47.561051" lon="7.945242">
        <ele>325.374348</ele>
        <time>2021-11-07T13:22:32.910Z</time>
      </trkpt>
      <trkpt lat="47.561253" lon="7.945105">
        <ele>327.022540</ele>
        <time>2021-11-07T13:22:42.944Z</time>
      </trkpt>
      <trkpt lat="47.561549" lon="7.944844">
        <ele>329.577995</ele>
        <time>2021-11-07T13:22:57.050Z</time>
      </trkpt>
      <trkpt lat="47.561590" lon="7.944808">
        <ele>329.931571</ele>
        <time>2021-11-07T13:22:58.523Z</time>
      </trkpt>
      <trkpt lat="47.561884" lon="7.944575">
        <ele>332.381028</ele>
        <time>2021-11-07T13:23:12.772Z</time>
      </trkpt>
      <trkpt lat="47.562104" lon="7.944442">
        <ele>334.002932</ele>
        <time>2021-11-07T13:23:21.807Z</time>
      </trkpt>
      <trkpt lat="47.562431" lon="7.944285">
        <ele>336.349306</ele>
        <time>2021-11-07T13:23:35.117Z</time>
      </trkpt>
      <trkpt lat="47.562993" lon="7.944148">
        <ele>340.237153</ele>
        <time>2021-11-07T13:23:57.285Z</time>
      </trkpt>
      <trkpt lat="47.563121" lon="7.944175">
        <ele>341.119706</ele>
        <time>2021-11-07T13:24:02.712Z</time>
      </trkpt>
      <trkpt lat="47.563250" lon="7.944210">
        <ele>342.014914</ele>
        <time>2021-11-07T13:24:09.371Z</time>
      </trkpt>
      <trkpt lat="47.563376" lon="7.944323">
        <ele>343.020236</ele>
        <time>2021-11-07T13:24:15.021Z</time>
      </trkpt>
      <trkpt lat="47.563617" lon="7.944825">
        <ele>346.327594</ele>
        <time>2021-11-07T13:24:35.166Z</time>
      </trkpt>
      <trkpt lat="47.563643" lon="7.944887">
        <ele>346.770732</ele>
        <time>2021-11-07T13:24:38.800Z</time>
      </trkpt>
      <trkpt lat="47.563752" lon="7.945307">
        <ele>349.502442</ele>
        <time>2021-11-07T13:24:53.460Z</time>
      </trkpt>
      <trkpt lat="47.563817" lon="7.945456">
        <ele>350.579521</ele>
        <time>2021-11-07T13:25:00.745Z</time>
      </trkpt>
      <trkpt lat="47.563874" lon="7.945541">
        <ele>351.306992</ele>
        <time>2021-11-07T13:25:05.208Z</time>
      </trkpt>
      <trkpt lat="47.564025" lon="7.945964">
        <ele>354.212023</ele>
        <time>2021-11-07T13:25:22.996Z</time>
      </trkpt>
      <trkpt lat="47.564119" lon="7.946229">
        <ele>356.029446</ele>
        <time>2021-11-07T13:25:31.534Z</time>
      </trkpt>
      <trkpt lat="47.564141" lon="7.946291">
        <ele>356.454685</ele>
        <time>2021-11-07T13:25:34.614Z</time>
      </trkpt>
      <trkpt lat="47.564271" lon="7.946559">
        <ele>358.458335</ele>
        <time>2021-11-07T13:25:45.507Z</time>
      </trkpt>
      <trkpt lat="47.564365" lon="7.946824">
        <ele>360.275751</ele>
        <time>2021-11-07T13:25:55.525Z</time>
      </trkpt>
      <trkpt lat="47.564404" lon="7.946994">
        <ele>361.327506</ele>
        <time>2021-11-07T13:26:01.534Z</time>
      </trkpt>
      <trkpt lat="47.564466" lon="7.947344">
        <ele>363.419592</ele>
        <time>2021-11-07T13:26:14.409Z</time>
      </trkpt>
      <trkpt lat="47.564602" lon="7.947749">
        <ele>366.035018</ele>
        <time>2021-11-07T13:26:30.412Z</time>
      </trkpt>
      <trkpt lat="47.564636" lon="7.947804">
        <ele>366.466269</ele>
        <time>2021-11-07T13:26:33.266Z</time>
      </trkpt>
      <trkpt lat="47.564704" lon="7.947878">
        <ele>367.189112</ele>
        <time>2021-11-07T13:26:37.426Z</time>
      </trkpt>
      <trkpt lat="47.564750" lon="7.947944">
        <ele>367.737695</ele>
        <time>2021-11-07T13:26:40.479Z</time>
      </trkpt>
      <trkpt lat="47.564785" lon="7.947966">
        <ele>368.063440</ele>
        <time>2021-11-07T13:26:42.232Z</time>
      </trkpt>
      <trkpt lat="47.564900" lon="7.948021">
        <ele>369.098818</ele>
        <time>2021-11-07T13:26:49.239Z</time>
      </trkpt>
      <trkpt lat="47.565021" lon="7.948043">
        <ele>370.143342</ele>
        <time>2021-11-07T13:26:55.405Z</time>
      </trkpt>
      <trkpt lat="47.565100" lon="7.948048">
        <ele>370.820846</ele>
        <time>2021-11-07T13:26:59.101Z</time>
      </trkpt>
      <trkpt lat="47.565219" lon="7.948009">
        <ele>371.865093</ele>
        <time>2021-11-07T13:27:05.251Z</time>
      </trkpt>
      <trkpt lat="47.565349" lon="7.947927">
        <ele>373.075647</ele>
        <time>2021-11-07T13:27:11.655Z</time>
      </trkpt>
      <trkpt lat="47.565487" lon="7.947832">
        <ele>374.379390</ele>
        <time>2021-11-07T13:27:18.210Z</time>
      </trkpt>
      <trkpt lat="47.565560" lon="7.947737">
        <ele>375.211781</ele>
        <time>2021-11-07T13:27:23.418Z</time>
      </trkpt>
      <trkpt lat="47.565946" lon="7.947239">
        <ele>379.031512</ele>
        <time>2021-11-07T13:27:44.907Z</time>
      </trkpt>
      <trkpt lat="47.566020" lon="7.947169">
        <ele>379.666361</ele>
        <time>2021-11-07T13:27:48.323Z</time>
      </trkpt>
      <trkpt lat="47.566041" lon="7.947154">
        <ele>379.834941</ele>
        <time>2021-11-07T13:27:49.462Z</time>
      </trkpt>
      <trkpt lat="47.566104" lon="7.947141">
        <ele>380.294925</ele>
        <time>2021-11-07T13:27:52.971Z</time>
      </trkpt>
      <trkpt lat="47.566181" lon="7.947137">
        <ele>380.852097</ele>
        <time>2021-11-07T13:27:56.211Z</time>
      </trkpt>
      <trkpt lat="47.566361" lon="7.947197">
        <ele>382.186296</ele>
        <time>2021-11-07T13:28:03.337Z</time>
      </trkpt>
      <trkpt lat="47.566559" lon="7.947459">
        <ele>384.105801</ele>
        <time>2021-11-07T13:28:15.660Z</time>
      </trkpt>
      <trkpt lat="47.566739" lon="7.947778">
        <ele>386.134872</ele>
        <time>2021-11-07T13:28:29.132Z</time>
      </trkpt>
      <trkpt lat="47.566807" lon="7.948128">
        <ele>387.912035</ele>
        <time>2021-11-07T13:28:39.571Z</time>
      </trkpt>
      <trkpt lat="47.566740" lon="7.949245">
        <ele>393.646590</ele>
        <time>2021-11-07T13:29:10.052Z</time>
      </trkpt>
      <trkpt lat="47.567150" lon="7.950174">
        <ele>399.386360</ele>
        <time>2021-11-07T13:29:42.918Z</time>
      </trkpt>
      <trkpt lat="47.567206" lon="7.950456">
        <ele>400.906297</ele>
        <time>2021-11-07T13:29:52.493Z</time>
      </trkpt>
      <trkpt lat="47.567222" lon="7.952062">
        <ele>411.529572</ele>
        <time>2021-11-07T13:30:51.895Z</time>
      </trkpt>
      <trkpt lat="47.567312" lon="7.952728">
        <ele>416.304490</ele>
        <time>2021-11-07T13:31:19.491Z</time>
      </trkpt>
      <trkpt lat="47.567451" lon="7.952996">
        <ele>418.680815</ele>
        <time>2021-11-07T13:31:31.659Z</time>
      </trkpt>
      <trkpt lat="47.567503" lon="7.953060">
        <ele>419.385056</ele>
        <time>2021-11-07T13:31:37.229Z</time>
      </trkpt>
      <trkpt lat="47.567660" lon="7.953207">
        <ele>421.319915</ele>
        <time>2021-11-07T13:31:47.637Z</time>
      </trkpt>
      <trkpt lat="47.568036" lon="7.953298">
        <ele>425.158353</ele>
        <time>2021-11-07T13:32:10.081Z</time>
      </trkpt>
      <trkpt lat="47.568322" lon="7.953261">
        <ele>428.046007</ele>
        <time>2021-11-07T13:32:27.138Z</time>
      </trkpt>
      <trkpt lat="47.568529" lon="7.953233">
        <ele>430.136759</ele>
        <time>2021-11-07T13:32:39.028Z</time>
      </trkpt>
      <trkpt lat="47.568801" lon="7.953205">
        <ele>432.879248</ele>
        <time>2021-11-07T13:32:53.581Z</time>
      </trkpt>
      <trkpt lat="47.569469" lon="7.953110">
        <ele>439.621314</ele>
        <time>2021-11-07T13:33:29.014Z</time>
      </trkpt>
      <trkpt lat="47.570258" lon="7.953004">
        <ele>445.730714</ele>
        <time>2021-11-07T13:34:06.855Z</time>
      </trkpt>
      <trkpt lat="47.570406" lon="7.952888">
        <ele>447.021784</ele>
        <time>2021-11-07T13:34:14.347Z</time>
      </trkpt>
      <trkpt lat="47.570624" lon="7.952436">
        <ele>449.912580</ele>
        <time>2021-11-07T13:34:31.066Z</time>
      </trkpt>
      <trkpt lat="47.570777" lon="7.951728">
        <ele>453.732837</ele>
        <time>2021-11-07T13:34:50.763Z</time>
      </trkpt>
      <trkpt lat="47.571014" lon="7.951483">
        <ele>455.623093</ele>
        <time>2021-11-07T13:35:03.566Z</time>
      </trkpt>
      <trkpt lat="47.571169" lon="7.951380">
        <ele>456.734319</ele>
        <time>2021-11-07T13:35:11.211Z</time>
      </trkpt>
      <trkpt lat="47.571274" lon="7.951357">
        <ele>457.428670</ele>
        <time>2021-11-07T13:35:16.132Z</time>
      </trkpt>
      <trkpt lat="47.571372" lon="7.951351">
        <ele>458.070316</ele>
        <time>2021-11-07T13:35:19.607Z</time>
      </trkpt>
      <trkpt lat="47.571432" lon="7.951352">
        <ele>458.462850</ele>
        <time>2021-11-07T13:35:22.062Z</time>
      </trkpt>
      <trkpt lat="47.571580" lon="7.951400">
        <ele>459.453946</ele>
        <time>2021-11-07T13:35:29.214Z</time>
      </trkpt>
      <trkpt lat="47.571881" lon="7.951642">
        <ele>461.694058</ele>
        <time>2021-11-07T13:35:42.835Z</time>
      </trkpt>
      <trkpt lat="47.572029" lon="7.952049">
        <ele>463.734673</ele>
        <time>2021-11-07T13:35:54.593Z</time>
      </trkpt>
      <trkpt lat="47.572063" lon="7.952158">
        <ele>464.264677</ele>
        <time>2021-11-07T13:35:58.516Z</time>
      </trkpt>
      <trkpt lat="47.572136" lon="7.952448">
        <ele>465.631610</ele>
        <time>2021-11-07T13:36:05.810Z</time>
      </trkpt>
      <trkpt lat="47.572431" lon="7.953273">
        <ele>469.761081</ele>
        <time>2021-11-07T13:36:30.617Z</time>
      </trkpt>
      <trkpt lat="47.572493" lon="7.953580">
        <ele>471.178353</ele>
        <time>2021-11-07T13:36:39.681Z</time>
      </trkpt>
      <trkpt lat="47.572561" lon="7.955012">
        <ele>477.603029</ele>
        <time>2021-11-07T13:37:21.530Z</time>
      </trkpt>
      <trkpt lat="47.572685" lon="7.955235">
        <ele>479.073330</ele>
        <time>2021-11-07T13:37:27.715Z</time>
      </trkpt>
      <trkpt lat="47.572732" lon="7.955226">
        <ele>479.430723</ele>
        <time>2021-11-07T13:37:30.312Z</time>
      </trkpt>
      <trkpt lat="47.572816" lon="7.955144">
        <ele>480.189245</ele>
        <time>2021-11-07T13:37:35.405Z</time>
      </trkpt>
      <trkpt lat="47.572895" lon="7.955000">
        <ele>481.133555</ele>
        <time>2021-11-07T13:37:39.442Z</time>
      </trkpt>
      <trkpt lat="47.573085" lon="7.954089">
        <ele>485.984995</ele>
        <time>2021-11-07T13:38:09.898Z</time>
      </trkpt>
      <trkpt lat="47.573460" lon="7.953097">
        <ele>491.602413</ele>
        <time>2021-11-07T13:38:46.943Z</time>
      </trkpt>
      <trkpt lat="47.573508" lon="7.952785">
        <ele>492.999326</ele>
        <time>2021-11-07T13:38:55.609Z</time>
      </trkpt>
      <trkpt lat="47.573526" lon="7.952563">
        <ele>493.975378</ele>
        <time>2021-11-07T13:39:02.404Z</time>
      </trkpt>
      <trkpt lat="47.573543" lon="7.952446">
        <ele>494.497819</ele>
        <time>2021-11-07T13:39:06.820Z</time>
      </trkpt>
      <trkpt lat="47.573809" lon="7.950963">
        <ele>501.196308</ele>
        <time>2021-11-07T13:39:47.820Z</time>
      </trkpt>
      <trkpt lat="47.573830" lon="7.950662">
        <ele>502.406197</ele>
        <time>2021-11-07T13:39:54.593Z</time>
      </trkpt>
      <trkpt lat="47.573833" lon="7.950164">
        <ele>503.752857</ele>
        <time>2021-11-07T13:40:06.232Z</time>
      </trkpt>
      <trkpt lat="47.573841" lon="7.949945">
        <ele>504.345907</ele>
        <time>2021-11-07T13:40:09.945Z</time>
      </trkpt>
      <trkpt lat="47.573779" lon="7.948382">
        <ele>508.579608</ele>
        <time>2021-11-07T13:40:39.544Z</time>
      </trkpt>
      <trkpt lat="47.573702" lon="7.947589">
        <ele>512.043152</ele>
        <time>2021-11-07T13:40:56.519Z</time>
      </trkpt>
      <trkpt lat="47.573457" lon="7.946845">
        <ele>516.496178</ele>
        <time>2021-11-07T13:41:18.104Z</time>
      </trkpt>
      <trkpt lat="47.573421" lon="7.946607">
        <ele>517.808095</ele>
        <time>2021-11-07T13:41:25.399Z</time>
      </trkpt>
      <trkpt lat="47.573532" lon="7.946081">
        <ele>520.772477</ele>
        <time>2021-11-07T13:41:44.463Z</time>
      </trkpt>
      <trkpt lat="47.574153" lon="7.944610">
        <ele>536.468298</ele>
        <time>2021-11-07T13:43:04.347Z</time>
      </trkpt>
      <trkpt lat="47.574394" lon="7.943856">
        <ele>545.465582</ele>
        <time>2021-11-07T13:43:51.650Z</time>
      </trkpt>
      <trkpt lat="47.574655" lon="7.943625">
        <ele>550.324624</ele>
        <time>2021-11-07T13:44:18.547Z</time>
      </trkpt>
      <trkpt lat="47.575613" lon="7.943320">
        <ele>569.810092</ele>
        <time>2021-11-07T13:45:53.030Z</time>
      </trkpt>
      <trkpt lat="47.575978" lon="7.943401">
        <ele>577.384820</ele>
        <time>2021-11-07T13:46:31.338Z</time>
      </trkpt>
      <trkpt lat="47.576415" lon="7.943598">
        <ele>586.759368</ele>
        <time>2021-11-07T13:47:16.307Z</time>
      </trkpt>
      <trkpt lat="47.576670" lon="7.943775">
        <ele>592.013463</ele>
        <time>2021-11-07T13:47:44.688Z</time>
      </trkpt>
      <trkpt lat="47.576803" lon="7.944012">
        <ele>595.558675</ele>
        <time>2021-11-07T13:48:01.205Z</time>
      </trkpt>
      <trkpt lat="47.576848" lon="7.944056">
        <ele>596.477634</ele>
        <time>2021-11-07T13:48:07.082Z</time>
      </trkpt>
      <trkpt lat="47.576917" lon="7.944153">
        <ele>598.098693</ele>
        <time>2021-11-07T13:48:15.185Z</time>
      </trkpt>
      <trkpt lat="47.577504" lon="7.944765">
        <ele>610.332326</ele>
        <time>2021-11-07T13:49:16.909Z</time>
      </trkpt>
      <trkpt lat="47.577848" lon="7.945352">
        <ele>619.274054</ele>
        <time>2021-11-07T13:49:55.609Z</time>
      </trkpt>
      <trkpt lat="47.578055" lon="7.946424">
        <ele>626.327669</ele>
        <time>2021-11-07T13:50:40.315Z</time>
      </trkpt>
      <trkpt lat="47.578220" lon="7.946989">
        <ele>630.002557</ele>
        <time>2021-11-07T13:50:58.154Z</time>
      </trkpt>
      <trkpt lat="47.578328" lon="7.947192">
        <ele>631.545728</ele>
        <time>2021-11-07T13:51:07.677Z</time>
      </trkpt>
      <trkpt lat="47.578396" lon="7.947244">
        <ele>632.222750</ele>
        <time>2021-11-07T13:51:08.515Z</time>
      </trkpt>
      <trkpt lat="47.578644" lon="7.947268">
        <ele>634.421794</ele>
        <time>2021-11-07T13:51:19.802Z</time>
      </trkpt>
      <trkpt lat="47.579396" lon="7.946888">
        <ele>640.362017</ele>
        <time>2021-11-07T13:51:49.401Z</time>
      </trkpt>
      <trkpt lat="47.579781" lon="7.947052">
        <ele>643.195884</ele>
        <time>2021-11-07T13:52:04.809Z</time>
      </trkpt>
      <trkpt lat="47.580077" lon="7.947070">
        <ele>645.291675</ele>
        <time>2021-11-07T13:52:17.082Z</time>
      </trkpt>
      <trkpt lat="47.580562" lon="7.947489">
        <ele>649.558816</ele>
        <time>2021-11-07T13:52:44.340Z</time>
      </trkpt>
      <trkpt lat="47.580865" lon="7.947817">
        <ele>653.717339</ele>
        <time>2021-11-07T13:53:06.996Z</time>
      </trkpt>
      <trkpt lat="47.580939" lon="7.948093">
        <ele>655.937941</ele>
        <time>2021-11-07T13:53:18.904Z</time>
      </trkpt>
      <trkpt lat="47.580743" lon="7.949656">
        <ele>667.824253</ele>
        <time>2021-11-07T13:54:27.363Z</time>
      </trkpt>
      <trkpt lat="47.580705" lon="7.949917">
        <ele>669.513731</ele>
        <time>2021-11-07T13:54:38.930Z</time>
      </trkpt>
      <trkpt lat="47.580578" lon="7.950534">
        <ele>673.042709</ele>
        <time>2021-11-07T13:55:01.444Z</time>
      </trkpt>
      <trkpt lat="47.580514" lon="7.951308">
        <ele>677.308620</ele>
        <time>2021-11-07T13:55:26.578Z</time>
      </trkpt>
      <trkpt lat="47.580789" lon="7.952623">
        <ele>684.124658</ele>
        <time>2021-11-07T13:56:04.530Z</time>
      </trkpt>
      <trkpt lat="47.580801" lon="7.952840">
        <ele>684.775131</ele>
        <time>2021-11-07T13:56:07.967Z</time>
      </trkpt>
      <trkpt lat="47.580783" lon="7.953015">
        <ele>685.303996</ele>
        <time>2021-11-07T13:56:12.738Z</time>
      </trkpt>
      <trkpt lat="47.580536" lon="7.954398">
        <ele>689.578157</ele>
        <time>2021-11-07T13:56:41.512Z</time>
      </trkpt>
      <trkpt lat="47.580388" lon="7.954967">
        <ele>691.343520</ele>
        <time>2021-11-07T13:56:55.220Z</time>
      </trkpt>
      <trkpt lat="47.580339" lon="7.955104">
        <ele>691.652863</ele>
        <time>2021-11-07T13:56:59.274Z</time>
      </trkpt>
      <trkpt lat="47.580265" lon="7.955293">
        <ele>692.088810</ele>
        <time>2021-11-07T13:57:03.496Z</time>
      </trkpt>
      <trkpt lat="47.580034" lon="7.955780">
        <ele>693.276476</ele>
        <time>2021-11-07T13:57:14.459Z</time>
      </trkpt>
      <trkpt lat="47.579879" lon="7.956035">
        <ele>693.961240</ele>
        <time>2021-11-07T13:57:20.864Z</time>
      </trkpt>
      <trkpt lat="47.579581" lon="7.956485">
        <ele>695.219244</ele>
        <time>2021-11-07T13:57:31.852Z</time>
      </trkpt>
      <trkpt lat="47.579019" lon="7.957379">
        <ele>696.820505</ele>
        <time>2021-11-07T13:57:50.394Z</time>
      </trkpt>
      <trkpt lat="47.578723" lon="7.958003">
        <ele>697.193290</ele>
        <time>2021-11-07T13:58:00.107Z</time>
      </trkpt>
      <trkpt lat="47.578554" lon="7.958491">
        <ele>697.461360</ele>
        <time>2021-11-07T13:58:05.826Z</time>
      </trkpt>
      <trkpt lat="47.578453" lon="7.959023">
        <ele>697.731441</ele>
        <time>2021-11-07T13:58:11.421Z</time>
      </trkpt>
      <trkpt lat="47.578428" lon="7.959421">
        <ele>697.778815</ele>
        <time>2021-11-07T13:58:15.249Z</time>
      </trkpt>
      <trkpt lat="47.578451" lon="7.959921">
        <ele>697.538599</ele>
        <time>2021-11-07T13:58:19.858Z</time>
      </trkpt>
      <trkpt lat="47.578556" lon="7.960464">
        <ele>697.267846</ele>
        <time>2021-11-07T13:58:24.819Z</time>
      </trkpt>
      <trkpt lat="47.578614" lon="7.960661">
        <ele>697.164819</ele>
        <time>2021-11-07T13:58:26.657Z</time>
      </trkpt>
      <trkpt lat="47.578655" lon="7.960775">
        <ele>697.102895</ele>
        <time>2021-11-07T13:58:27.802Z</time>
      </trkpt>
      <trkpt lat="47.578838" lon="7.961180">
        <ele>696.869247</ele>
        <time>2021-11-07T13:58:31.812Z</time>
      </trkpt>
      <trkpt lat="47.579169" lon="7.961638">
        <ele>696.536947</ele>
        <time>2021-11-07T13:58:37.202Z</time>
      </trkpt>
      <trkpt lat="47.579759" lon="7.962106">
        <ele>695.872036</ele>
        <time>2021-11-07T13:58:45.312Z</time>
      </trkpt>
      <trkpt lat="47.579789" lon="7.962119">
        <ele>695.840978</ele>
        <time>2021-11-07T13:58:45.645Z</time>
      </trkpt>
      <trkpt lat="47.580131" lon="7.962271">
        <ele>695.486201</ele>
        <time>2021-11-07T13:58:49.826Z</time>
      </trkpt>
      <trkpt lat="47.580893" lon="7.962449">
        <ele>694.849299</ele>
        <time>2021-11-07T13:58:59.261Z</time>
      </trkpt>
      <trkpt lat="47.581514" lon="7.962514">
        <ele>695.425046</ele>
        <time>2021-11-07T13:59:08.531Z</time>
      </trkpt>
      <trkpt lat="47.582180" lon="7.962548">
        <ele>696.041346</ele>
        <time>2021-11-07T13:59:21.805Z</time>
      </trkpt>
      <trkpt lat="47.582545" lon="7.962501">
        <ele>696.380179</ele>
        <time>2021-11-07T13:59:30.170Z</time>
      </trkpt>
      <trkpt lat="47.582968" lon="7.962415">
        <ele>697.766919</ele>
        <time>2021-11-07T13:59:40.700Z</time>
      </trkpt>
      <trkpt lat="47.583134" lon="7.962356">
        <ele>698.406915</ele>
        <time>2021-11-07T13:59:45.144Z</time>
      </trkpt>
      <trkpt lat="47.583243" lon="7.962307">
        <ele>698.833948</ele>
        <time>2021-11-07T13:59:48.111Z</time>
      </trkpt>
      <trkpt lat="47.583450" lon="7.962220">
        <ele>699.640608</ele>
        <time>2021-11-07T13:59:54.470Z</time>
      </trkpt>
      <trkpt lat="47.584506" lon="7.961629">
        <ele>704.026596</ele>
        <time>2021-11-07T14:00:32.204Z</time>
      </trkpt>
      <trkpt lat="47.584845" lon="7.961410">
        <ele>705.727877</ele>
        <time>2021-11-07T14:00:45.364Z</time>
      </trkpt>
      <trkpt lat="47.585078" lon="7.961320">
        <ele>706.835633</ele>
        <time>2021-11-07T14:00:53.332Z</time>
      </trkpt>
      <trkpt lat="47.585149" lon="7.961311">
        <ele>707.163476</ele>
        <time>2021-11-07T14:00:55.489Z</time>
      </trkpt>
      <trkpt lat="47.585281" lon="7.961295">
        <ele>707.772799</ele>
        <time>2021-11-07T14:01:00.622Z</time>
      </trkpt>
      <trkpt lat="47.585514" lon="7.961317">
        <ele>708.846942</ele>
        <time>2021-11-07T14:01:07.691Z</time>
      </trkpt>
      <trkpt lat="47.585805" lon="7.961386">
        <ele>710.202769</ele>
        <time>2021-11-07T14:01:17.451Z</time>
      </trkpt>
      <trkpt lat="47.585873" lon="7.960986">
        <ele>711.476698</ele>
        <time>2021-11-07T14:01:27.024Z</time>
      </trkpt>
      <trkpt lat="47.586086" lon="7.960207">
        <ele>712.949519</ele>
        <time>2021-11-07T14:01:43.778Z</time>
      </trkpt>
      <trkpt lat="47.586102" lon="7.959952">
        <ele>713.398246</ele>
        <time>2021-11-07T14:01:49.279Z</time>
      </trkpt>
      <trkpt lat="47.586146" lon="7.959435">
        <ele>714.311291</ele>
        <time>2021-11-07T14:01:58.353Z</time>
      </trkpt>
      <trkpt lat="47.586176" lon="7.959292">
        <ele>714.573689</ele>
        <time>2021-11-07T14:02:00.387Z</time>
      </trkpt>
      <trkpt lat="47.586219" lon="7.959169">
        <ele>714.816432</ele>
        <time>2021-11-07T14:02:02.018Z</time>
      </trkpt>
      <trkpt lat="47.586288" lon="7.958990">
        <ele>715.177673</ele>
        <time>2021-11-07T14:02:05.739Z</time>
      </trkpt>
      <trkpt lat="47.586923" lon="7.957734">
        <ele>716.139869</ele>
        <time>2021-11-07T14:02:23.431Z</time>
      </trkpt>
      <trkpt lat="47.586944" lon="7.957734">
        <ele>716.139828</ele>
        <time>2021-11-07T14:02:24.156Z</time>
      </trkpt>
      <trkpt lat="47.587281" lon="7.956910">
        <ele>716.138565</ele>
        <time>2021-11-07T14:02:32.822Z</time>
      </trkpt>
      <trkpt lat="47.587425" lon="7.956416">
        <ele>716.137860</ele>
        <time>2021-11-07T14:02:37.583Z</time>
      </trkpt>
      <trkpt lat="47.587551" lon="7.956004">
        <ele>716.148848</ele>
        <time>2021-11-07T14:02:41.526Z</time>
      </trkpt>
      <trkpt lat="47.587753" lon="7.954971">
        <ele>716.184251</ele>
        <time>2021-11-07T14:02:51.050Z</time>
      </trkpt>
      <trkpt lat="47.587893" lon="7.953681">
        <ele>716.303243</ele>
        <time>2021-11-07T14:03:05.414Z</time>
      </trkpt>
      <trkpt lat="47.588017" lon="7.953249">
        <ele>716.983135</ele>
        <time>2021-11-07T14:03:12.172Z</time>
      </trkpt>
      <trkpt lat="47.588285" lon="7.952746">
        <ele>717.911410</ele>
        <time>2021-11-07T14:03:23.028Z</time>
      </trkpt>
      <trkpt lat="47.588460" lon="7.952538">
        <ele>718.392982</ele>
        <time>2021-11-07T14:03:28.596Z</time>
      </trkpt>
      <trkpt lat="47.588460" lon="7.952538">
        <ele>718.392982</ele>
        <time>2021-11-07T14:03:28.631Z</time>
      </trkpt>
      <trkpt lat="47.588671" lon="7.952377">
        <ele>718.902495</ele>
        <time>2021-11-07T14:03:34.632Z</time>
      </trkpt>
      <trkpt lat="47.589168" lon="7.952159">
        <ele>720.015325</ele>
        <time>2021-11-07T14:03:47.536Z</time>
      </trkpt>
      <trkpt lat="47.589410" lon="7.951988">
        <ele>720.631873</ele>
        <time>2021-11-07T14:03:54.322Z</time>
      </trkpt>
      <trkpt lat="47.589720" lon="7.951692">
        <ele>721.487949</ele>
        <time>2021-11-07T14:04:03.345Z</time>
      </trkpt>
      <trkpt lat="47.590394" lon="7.951267">
        <ele>723.188445</ele>
        <time>2021-11-07T14:04:21.317Z</time>
      </trkpt>
      <trkpt lat="47.590956" lon="7.951124">
        <ele>724.497039</ele>
        <time>2021-11-07T14:04:33.699Z</time>
      </trkpt>
      <trkpt lat="47.591086" lon="7.951105">
        <ele>724.781682</ele>
        <time>2021-11-07T14:04:37.614Z</time>
      </trkpt>
      <trkpt lat="47.591264" lon="7.951112">
        <ele>725.169680</ele>
        <time>2021-11-07T14:04:40.907Z</time>
      </trkpt>
      <trkpt lat="47.591344" lon="7.950958">
        <ele>725.455344</ele>
        <time>2021-11-07T14:04:44.265Z</time>
      </trkpt>
      <trkpt lat="47.591845" lon="7.950440">
        <ele>726.786216</ele>
        <time>2021-11-07T14:04:57.926Z</time>
      </trkpt>
      <trkpt lat="47.591956" lon="7.950268">
        <ele>727.136056</ele>
        <time>2021-11-07T14:05:02.521Z</time>
      </trkpt>
      <trkpt lat="47.592035" lon="7.949938">
        <ele>727.650647</ele>
        <time>2021-11-07T14:05:07.280Z</time>
      </trkpt>
      <trkpt lat="47.592026" lon="7.949767">
        <ele>727.902700</ele>
        <time>2021-11-07T14:05:11.070Z</time>
      </trkpt>
      <trkpt lat="47.591999" lon="7.949712">
        <ele>728.002669</ele>
        <time>2021-11-07T14:05:11.913Z</time>
      </trkpt>
      <trkpt lat="47.591697" lon="7.949444">
        <ele>729.040522</ele>
        <time>2021-11-07T14:05:20.452Z</time>
      </trkpt>
      <trkpt lat="47.590796" lon="7.949145">
        <ele>731.981089</ele>
        <time>2021-11-07T14:05:43.561Z</time>
      </trkpt>
      <trkpt lat="47.590691" lon="7.948979">
        <ele>732.469931</ele>
        <time>2021-11-07T14:05:48.657Z</time>
      </trkpt>
      <trkpt lat="47.590596" lon="7.948518">
        <ele>733.505332</ele>
        <time>2021-11-07T14:05:58.818Z</time>
      </trkpt>
      <trkpt lat="47.590739" lon="7.947828">
        <ele>735.591812</ele>
        <time>2021-11-07T14:06:15.196Z</time>
      </trkpt>
      <trkpt lat="47.590879" lon="7.947496">
        <ele>736.826655</ele>
        <time>2021-11-07T14:06:23.330Z</time>
      </trkpt>
      <trkpt lat="47.590995" lon="7.947386">
        <ele>737.470530</ele>
        <time>2021-11-07T14:06:28.925Z</time>
      </trkpt>
      <trkpt lat="47.591363" lon="7.947321">
        <ele>739.203515</ele>
        <time>2021-11-07T14:06:41.508Z</time>
      </trkpt>
      <trkpt lat="47.592046" lon="7.947277">
        <ele>742.389192</ele>
        <time>2021-11-07T14:07:04.438Z</time>
      </trkpt>
      <trkpt lat="47.592691" lon="7.947362">
        <ele>744.987748</ele>
        <time>2021-11-07T14:07:26.526Z</time>
      </trkpt>
      <trkpt lat="47.593433" lon="7.947479">
        <ele>747.982147</ele>
        <time>2021-11-07T14:07:47.822Z</time>
      </trkpt>
      <trkpt lat="47.594254" lon="7.947641">
        <ele>751.604768</ele>
        <time>2021-11-07T14:08:11.671Z</time>
      </trkpt>
      <trkpt lat="47.594845" lon="7.947767">
        <ele>754.406372</ele>
        <time>2021-11-07T14:08:32.206Z</time>
      </trkpt>
      <trkpt lat="47.595628" lon="7.948062">
        <ele>758.189513</ele>
        <time>2021-11-07T14:09:01.363Z</time>
      </trkpt>
      <trkpt lat="47.595928" lon="7.948186">
        <ele>759.599991</ele>
        <time>2021-11-07T14:09:13.176Z</time>
      </trkpt>
      <trkpt lat="47.596261" lon="7.948268">
        <ele>761.128784</ele>
        <time>2021-11-07T14:09:25.295Z</time>
      </trkpt>
      <trkpt lat="47.596808" lon="7.948374">
        <ele>763.627184</ele>
        <time>2021-11-07T14:09:42.695Z</time>
      </trkpt>
      <trkpt lat="47.597252" lon="7.948459">
        <ele>765.654725</ele>
        <time>2021-11-07T14:09:56.465Z</time>
      </trkpt>
      <trkpt lat="47.597284" lon="7.948456">
        <ele>765.799941</ele>
        <time>2021-11-07T14:09:57.931Z</time>
      </trkpt>
      <trkpt lat="47.597463" lon="7.948498">
        <ele>766.503483</ele>
        <time>2021-11-07T14:10:02.688Z</time>
      </trkpt>
      <trkpt lat="47.597542" lon="7.948555">
        <ele>766.807235</ele>
        <time>2021-11-07T14:10:05.108Z</time>
      </trkpt>
      <trkpt lat="47.597591" lon="7.948609">
        <ele>767.018309</ele>
        <time>2021-11-07T14:10:07.513Z</time>
      </trkpt>
      <trkpt lat="47.597713" lon="7.948780">
        <ele>767.598713</ele>
        <time>2021-11-07T14:10:12.037Z</time>
      </trkpt>
      <trkpt lat="47.597986" lon="7.949276">
        <ele>769.091423</ele>
        <time>2021-11-07T14:10:23.257Z</time>
      </trkpt>
      <trkpt lat="47.598158" lon="7.949458">
        <ele>769.821968</ele>
        <time>2021-11-07T14:10:30.104Z</time>
      </trkpt>
      <trkpt lat="47.598287" lon="7.949604">
        <ele>770.383031</ele>
        <time>2021-11-07T14:10:33.490Z</time>
      </trkpt>
      <trkpt lat="47.598351" lon="7.949607">
        <ele>770.604418</ele>
        <time>2021-11-07T14:10:35.314Z</time>
      </trkpt>
      <trkpt lat="47.598463" lon="7.949612">
        <ele>770.991827</ele>
        <time>2021-11-07T14:10:39.352Z</time>
      </trkpt>
      <trkpt lat="47.599532" lon="7.949671">
        <ele>775.238574</ele>
        <time>2021-11-07T14:11:10.401Z</time>
      </trkpt>
      <trkpt lat="47.600170" lon="7.949596">
        <ele>777.968292</ele>
        <time>2021-11-07T14:11:31.640Z</time>
      </trkpt>
      <trkpt lat="47.600361" lon="7.949597">
        <ele>778.782946</ele>
        <time>2021-11-07T14:11:38.395Z</time>
      </trkpt>
      <trkpt lat="47.600587" lon="7.949607">
        <ele>779.747304</ele>
        <time>2021-11-07T14:11:45.567Z</time>
      </trkpt>
      <trkpt lat="47.601639" lon="7.950057">
        <ele>785.279463</ele>
        <time>2021-11-07T14:12:23.812Z</time>
      </trkpt>
      <trkpt lat="47.602330" lon="7.950202">
        <ele>788.839160</ele>
        <time>2021-11-07T14:12:49.812Z</time>
      </trkpt>
      <trkpt lat="47.603548" lon="7.950073">
        <ele>794.067928</ele>
        <time>2021-11-07T14:13:31.500Z</time>
      </trkpt>
      <trkpt lat="47.603670" lon="7.950066">
        <ele>794.584760</ele>
        <time>2021-11-07T14:13:35.833Z</time>
      </trkpt>
      <trkpt lat="47.603825" lon="7.950078">
        <ele>795.241794</ele>
        <time>2021-11-07T14:13:39.986Z</time>
      </trkpt>
      <trkpt lat="47.603924" lon="7.950086">
        <ele>795.661499</ele>
        <time>2021-11-07T14:13:42.511Z</time>
      </trkpt>
      <trkpt lat="47.604947" lon="7.950295">
        <ele>797.909330</ele>
        <time>2021-11-07T14:14:07.821Z</time>
      </trkpt>
      <trkpt lat="47.605102" lon="7.950351">
        <ele>798.140539</ele>
        <time>2021-11-07T14:14:11.624Z</time>
      </trkpt>
      <trkpt lat="47.606487" lon="7.951041">
        <ele>799.902884</ele>
        <time>2021-11-07T14:14:35.156Z</time>
      </trkpt>
      <trkpt lat="47.606758" lon="7.951082">
        <ele>800.132240</ele>
        <time>2021-11-07T14:14:40.184Z</time>
      </trkpt>
      <trkpt lat="47.607166" lon="7.950974">
        <ele>800.481189</ele>
        <time>2021-11-07T14:14:47.802Z</time>
      </trkpt>
      <trkpt lat="47.607597" lon="7.950928">
        <ele>800.845014</ele>
        <time>2021-11-07T14:14:56.260Z</time>
      </trkpt>
      <trkpt lat="47.607851" lon="7.950895">
        <ele>801.060275</ele>
        <time>2021-11-07T14:15:01.602Z</time>
      </trkpt>
      <trkpt lat="47.608139" lon="7.950744">
        <ele>801.318580</ele>
        <time>2021-11-07T14:15:07.974Z</time>
      </trkpt>
      <trkpt lat="47.608646" lon="7.950271">
        <ele>801.825061</ele>
        <time>2021-11-07T14:15:20.292Z</time>
      </trkpt>
      <trkpt lat="47.608916" lon="7.950126">
        <ele>802.067881</ele>
        <time>2021-11-07T14:15:25.611Z</time>
      </trkpt>
      <trkpt lat="47.608814" lon="7.949946">
        <ele>802.201934</ele>
        <time>2021-11-07T14:15:28.406Z</time>
      </trkpt>
      <trkpt lat="47.608598" lon="7.949608">
        <ele>802.386865</ele>
        <time>2021-11-07T14:15:33.038Z</time>
      </trkpt>
      <trkpt lat="47.608258" lon="7.949098">
        <ele>801.266643</ele>
        <time>2021-11-07T14:15:39.006Z</time>
      </trkpt>
      <trkpt lat="47.607428" lon="7.947861">
        <ele>798.540839</ele>
        <time>2021-11-07T14:15:51.152Z</time>
      </trkpt>
      <trkpt lat="47.607177" lon="7.947456">
        <ele>797.348779</ele>
        <time>2021-11-07T14:15:54.749Z</time>
      </trkpt>
      <trkpt lat="47.607053" lon="7.947037">
        <ele>796.235916</ele>
        <time>2021-11-07T14:15:57.722Z</time>
      </trkpt>
      <trkpt lat="47.607026" lon="7.946800">
        <ele>795.651356</ele>
        <time>2021-11-07T14:15:59.290Z</time>
      </trkpt>
      <trkpt lat="47.607053" lon="7.946387">
        <ele>794.642220</ele>
        <time>2021-11-07T14:16:02.014Z</time>
      </trkpt>
      <trkpt lat="47.607219" lon="7.945696">
        <ele>792.858202</ele>
        <time>2021-11-07T14:16:06.891Z</time>
      </trkpt>
      <trkpt lat="47.607532" lon="7.944721">
        <ele>790.081251</ele>
        <time>2021-11-07T14:16:14.525Z</time>
      </trkpt>
      <trkpt lat="47.607673" lon="7.944452">
        <ele>789.172513</ele>
        <time>2021-11-07T14:16:17.059Z</time>
      </trkpt>
      <trkpt lat="47.607934" lon="7.944298">
        <ele>788.061357</ele>
        <time>2021-11-07T14:16:20.231Z</time>
      </trkpt>
      <trkpt lat="47.608484" lon="7.944152">
        <ele>785.851103</ele>
        <time>2021-11-07T14:16:25.571Z</time>
      </trkpt>
      <trkpt lat="47.609294" lon="7.943637">
        <ele>778.943986</ele>
        <time>2021-11-07T14:16:33.530Z</time>
      </trkpt>
      <trkpt lat="47.609350" lon="7.943593">
        <ele>778.322214</ele>
        <time>2021-11-07T14:16:34.066Z</time>
      </trkpt>
      <trkpt lat="47.609814" lon="7.943160">
        <ele>772.943623</ele>
        <time>2021-11-07T14:16:38.759Z</time>
      </trkpt>
      <trkpt lat="47.610014" lon="7.942918">
        <ele>770.411220</ele>
        <time>2021-11-07T14:16:40.926Z</time>
      </trkpt>
      <trkpt lat="47.610065" lon="7.942722">
        <ele>769.021531</ele>
        <time>2021-11-07T14:16:42.120Z</time>
      </trkpt>
      <trkpt lat="47.610075" lon="7.942547">
        <ele>767.859813</ele>
        <time>2021-11-07T14:16:43.102Z</time>
      </trkpt>
      <trkpt lat="47.609950" lon="7.942351">
        <ele>766.151370</ele>
        <time>2021-11-07T14:16:44.693Z</time>
      </trkpt>
      <trkpt lat="47.609824" lon="7.942206">
        <ele>764.711773</ele>
        <time>2021-11-07T14:16:46.014Z</time>
      </trkpt>
      <trkpt lat="47.609660" lon="7.942072">
        <ele>763.021571</ele>
        <time>2021-11-07T14:16:47.638Z</time>
      </trkpt>
      <trkpt lat="47.609328" lon="7.941802">
        <ele>759.603656</ele>
        <time>2021-11-07T14:16:50.897Z</time>
      </trkpt>
      <trkpt lat="47.609231" lon="7.941717">
        <ele>758.586633</ele>
        <time>2021-11-07T14:16:51.848Z</time>
      </trkpt>
      <trkpt lat="47.608985" lon="7.941282">
        <ele>755.131192</ele>
        <time>2021-11-07T14:16:55.234Z</time>
      </trkpt>
      <trkpt lat="47.608976" lon="7.941180">
        <ele>754.505129</ele>
        <time>2021-11-07T14:16:55.821Z</time>
      </trkpt>
      <trkpt lat="47.608986" lon="7.941047">
        <ele>753.690677</ele>
        <time>2021-11-07T14:16:57.236Z</time>
      </trkpt>
      <trkpt lat="47.609156" lon="7.940638">
        <ele>750.779239</ele>
        <time>2021-11-07T14:17:00.109Z</time>
      </trkpt>
      <trkpt lat="47.609697" lon="7.940207">
        <ele>748.017538</ele>
        <time>2021-11-07T14:17:06.107Z</time>
      </trkpt>
      <trkpt lat="47.610427" lon="7.939448">
        <ele>744.008393</ele>
        <time>2021-11-07T14:17:15.141Z</time>
      </trkpt>
      <trkpt lat="47.610663" lon="7.939057">
        <ele>742.307415</ele>
        <time>2021-11-07T14:17:18.453Z</time>
      </trkpt>
      <trkpt lat="47.611668" lon="7.937036">
        <ele>731.767691</ele>
        <time>2021-11-07T14:17:33.739Z</time>
      </trkpt>
      <trkpt lat="47.612157" lon="7.936591">
        <ele>728.992885</ele>
        <time>2021-11-07T14:17:39.075Z</time>
      </trkpt>
      <trkpt lat="47.612760" lon="7.936192">
        <ele>725.871813</ele>
        <time>2021-11-07T14:17:45.487Z</time>
      </trkpt>
      <trkpt lat="47.613611" lon="7.935811">
        <ele>721.252160</ele>
        <time>2021-11-07T14:17:54.148Z</time>
      </trkpt>
      <trkpt lat="47.613843" lon="7.935758">
        <ele>719.795024</ele>
        <time>2021-11-07T14:17:56.400Z</time>
      </trkpt>
      <trkpt lat="47.614095" lon="7.935725">
        <ele>718.224632</ele>
        <time>2021-11-07T14:17:58.751Z</time>
      </trkpt>
      <trkpt lat="47.615166" lon="7.935713">
        <ele>711.455762</ele>
        <time>2021-11-07T14:18:08.370Z</time>
      </trkpt>
      <trkpt lat="47.615451" lon="7.935602">
        <ele>708.787815</ele>
        <time>2021-11-07T14:18:10.933Z</time>
      </trkpt>
      <trkpt lat="47.615705" lon="7.935396">
        <ele>706.166746</ele>
        <time>2021-11-07T14:18:13.439Z</time>
      </trkpt>
      <trkpt lat="47.616262" lon="7.934487">
        <ele>698.669016</ele>
        <time>2021-11-07T14:18:20.619Z</time>
      </trkpt>
      <trkpt lat="47.616672" lon="7.934051">
        <ele>694.015620</ele>
        <time>2021-11-07T14:18:24.992Z</time>
      </trkpt>
      <trkpt lat="47.616878" lon="7.934048">
        <ele>692.040026</ele>
        <time>2021-11-07T14:18:26.773Z</time>
      </trkpt>
      <trkpt lat="47.617409" lon="7.934240">
        <ele>686.798770</ele>
        <time>2021-11-07T14:18:31.525Z</time>
      </trkpt>
      <trkpt lat="47.617581" lon="7.934210">
        <ele>685.137964</ele>
        <time>2021-11-07T14:18:33.025Z</time>
      </trkpt>
      <trkpt lat="47.618969" lon="7.933585">
        <ele>670.156435</ele>
        <time>2021-11-07T14:18:45.515Z</time>
      </trkpt>
      <trkpt lat="47.619096" lon="7.933469">
        <ele>668.509707</ele>
        <time>2021-11-07T14:18:46.782Z</time>
      </trkpt>
      <trkpt lat="47.619255" lon="7.933163">
        <ele>665.634157</ele>
        <time>2021-11-07T14:18:49.014Z</time>
      </trkpt>
      <trkpt lat="47.619818" lon="7.932353">
        <ele>657.020760</ele>
        <time>2021-11-07T14:18:55.637Z</time>
      </trkpt>
      <trkpt lat="47.620106" lon="7.931975">
        <ele>652.907868</ele>
        <time>2021-11-07T14:18:58.870Z</time>
      </trkpt>
      <trkpt lat="47.620440" lon="7.931519">
        <ele>648.052941</ele>
        <time>2021-11-07T14:19:02.728Z</time>
      </trkpt>
      <trkpt lat="47.620523" lon="7.931338">
        <ele>646.474671</ele>
        <time>2021-11-07T14:19:03.969Z</time>
      </trkpt>
      <trkpt lat="47.620633" lon="7.930854">
        <ele>642.792268</ele>
        <time>2021-11-07T14:19:06.939Z</time>
      </trkpt>
      <trkpt lat="47.620770" lon="7.930392">
        <ele>639.178643</ele>
        <time>2021-11-07T14:19:09.908Z</time>
      </trkpt>
      <trkpt lat="47.621014" lon="7.929789">
        <ele>636.517533</ele>
        <time>2021-11-07T14:19:14.185Z</time>
      </trkpt>
      <trkpt lat="47.621153" lon="7.929574">
        <ele>635.390332</ele>
        <time>2021-11-07T14:19:16.032Z</time>
      </trkpt>
      <trkpt lat="47.621561" lon="7.929312">
        <ele>632.894706</ele>
        <time>2021-11-07T14:19:20.293Z</time>
      </trkpt>
      <trkpt lat="47.622199" lon="7.929159">
        <ele>629.266829</ele>
        <time>2021-11-07T14:19:26.567Z</time>
      </trkpt>
      <trkpt lat="47.622516" lon="7.929178">
        <ele>626.975335</ele>
        <time>2021-11-07T14:19:29.587Z</time>
      </trkpt>
      <trkpt lat="47.622878" lon="7.929322">
        <ele>624.210044</ele>
        <time>2021-11-07T14:19:33.083Z</time>
      </trkpt>
      <trkpt lat="47.622967" lon="7.929237">
        <ele>623.429084</ele>
        <time>2021-11-07T14:19:34.081Z</time>
      </trkpt>
      <trkpt lat="47.622989" lon="7.929175">
        <ele>623.080637</ele>
        <time>2021-11-07T14:19:34.568Z</time>
      </trkpt>
      <trkpt lat="47.622990" lon="7.929067">
        <ele>622.543498</ele>
        <time>2021-11-07T14:19:35.174Z</time>
      </trkpt>
      <trkpt lat="47.622913" lon="7.928884">
        <ele>621.470654</ele>
        <time>2021-11-07T14:19:36.518Z</time>
      </trkpt>
      <trkpt lat="47.621861" lon="7.928723">
        <ele>612.705863</ele>
        <time>2021-11-07T14:19:45.654Z</time>
      </trkpt>
      <trkpt lat="47.620569" lon="7.928919">
        <ele>598.879818</ele>
        <time>2021-11-07T14:19:56.701Z</time>
      </trkpt>
      <trkpt lat="47.619928" lon="7.929124">
        <ele>592.916078</ele>
        <time>2021-11-07T14:20:02.367Z</time>
      </trkpt>
      <trkpt lat="47.619604" lon="7.929315">
        <ele>589.992207</ele>
        <time>2021-11-07T14:20:05.405Z</time>
      </trkpt>
      <trkpt lat="47.619329" lon="7.929527">
        <ele>587.393143</ele>
        <time>2021-11-07T14:20:08.133Z</time>
      </trkpt>
      <trkpt lat="47.618921" lon="7.930073">
        <ele>582.785058</ele>
        <time>2021-11-07T14:20:13.026Z</time>
      </trkpt>
      <trkpt lat="47.618761" lon="7.930033">
        <ele>581.446085</ele>
        <time>2021-11-07T14:20:14.532Z</time>
      </trkpt>
      <trkpt lat="47.618733" lon="7.929945">
        <ele>580.961679</ele>
        <time>2021-11-07T14:20:15.122Z</time>
      </trkpt>
      <trkpt lat="47.618734" lon="7.929873">
        <ele>580.603194</ele>
        <time>2021-11-07T14:20:15.532Z</time>
      </trkpt>
      <trkpt lat="47.618861" lon="7.929607">
        <ele>578.980564</ele>
        <time>2021-11-07T14:20:17.603Z</time>
      </trkpt>
      <trkpt lat="47.619053" lon="7.929381">
        <ele>577.170566</ele>
        <time>2021-11-07T14:20:19.832Z</time>
      </trkpt>
      <trkpt lat="47.620384" lon="7.928242">
        <ele>564.536652</ele>
        <time>2021-11-07T14:20:33.505Z</time>
      </trkpt>
      <trkpt lat="47.620796" lon="7.927816">
        <ele>558.919895</ele>
        <time>2021-11-07T14:20:37.778Z</time>
      </trkpt>
      <trkpt lat="47.620873" lon="7.927631">
        <ele>557.280750</ele>
        <time>2021-11-07T14:20:39.018Z</time>
      </trkpt>
      <trkpt lat="47.620930" lon="7.927423">
        <ele>555.588045</ele>
        <time>2021-11-07T14:20:40.280Z</time>
      </trkpt>
      <trkpt lat="47.620993" lon="7.927078">
        <ele>552.893416</ele>
        <time>2021-11-07T14:20:42.316Z</time>
      </trkpt>
      <trkpt lat="47.621010" lon="7.926916">
        <ele>551.657426</ele>
        <time>2021-11-07T14:20:43.245Z</time>
      </trkpt>
      <trkpt lat="47.621008" lon="7.926716">
        <ele>550.149511</ele>
        <time>2021-11-07T14:20:44.382Z</time>
      </trkpt>
      <trkpt lat="47.621092" lon="7.926230">
        <ele>546.226203</ele>
        <time>2021-11-07T14:20:47.225Z</time>
      </trkpt>
      <trkpt lat="47.621290" lon="7.925709">
        <ele>541.371784</ele>
        <time>2021-11-07T14:20:50.610Z</time>
      </trkpt>
      <trkpt lat="47.621339" lon="7.925596">
        <ele>540.281244</ele>
        <time>2021-11-07T14:20:51.361Z</time>
      </trkpt>
      <trkpt lat="47.621723" lon="7.924936">
        <ele>533.204875</ele>
        <time>2021-11-07T14:20:56.302Z</time>
      </trkpt>
      <trkpt lat="47.623053" lon="7.924259">
        <ele>517.491196</ele>
        <time>2021-11-07T14:21:08.405Z</time>
      </trkpt>
      <trkpt lat="47.623206" lon="7.923969">
        <ele>514.856493</ele>
        <time>2021-11-07T14:21:10.570Z</time>
      </trkpt>
      <trkpt lat="47.623246" lon="7.923768">
        <ele>513.357154</ele>
        <time>2021-11-07T14:21:11.766Z</time>
      </trkpt>
      <trkpt lat="47.623227" lon="7.922954">
        <ele>507.530247</ele>
        <time>2021-11-07T14:21:16.435Z</time>
      </trkpt>
      <trkpt lat="47.623251" lon="7.922713">
        <ele>505.654643</ele>
        <time>2021-11-07T14:21:17.813Z</time>
      </trkpt>
      <trkpt lat="47.623298" lon="7.922501">
        <ele>503.931103</ele>
        <time>2021-11-07T14:21:19.096Z</time>
      </trkpt>
      <trkpt lat="47.623564" lon="7.921962">
        <ele>498.771952</ele>
        <time>2021-11-07T14:21:22.904Z</time>
      </trkpt>
      <trkpt lat="47.623626" lon="7.921633">
        <ele>496.133704</ele>
        <time>2021-11-07T14:21:24.863Z</time>
      </trkpt>
      <trkpt lat="47.623611" lon="7.921528">
        <ele>495.304795</ele>
        <time>2021-11-07T14:21:25.466Z</time>
      </trkpt>
      <trkpt lat="47.623588" lon="7.921368">
        <ele>494.041356</ele>
        <time>2021-11-07T14:21:26.400Z</time>
      </trkpt>
      <trkpt lat="47.623561" lon="7.920975">
        <ele>490.990566</ele>
        <time>2021-11-07T14:21:28.655Z</time>
      </trkpt>
      <trkpt lat="47.623430" lon="7.919875">
        <ele>482.929972</ele>
        <time>2021-11-07T14:21:35.122Z</time>
      </trkpt>
      <trkpt lat="47.623255" lon="7.919315">
        <ele>478.764759</ele>
        <time>2021-11-07T14:21:38.696Z</time>
      </trkpt>
      <trkpt lat="47.623010" lon="7.918947">
        <ele>475.274359</ele>
        <time>2021-11-07T14:21:41.678Z</time>
      </trkpt>
      <trkpt lat="47.622446" lon="7.918652">
        <ele>469.287172</ele>
        <time>2021-11-07T14:21:46.900Z</time>
      </trkpt>
      <trkpt lat="47.622366" lon="7.918470">
        <ele>467.832513</ele>
        <time>2021-11-07T14:21:48.154Z</time>
      </trkpt>
      <trkpt lat="47.622381" lon="7.918164">
        <ele>465.785651</ele>
        <time>2021-11-07T14:21:49.964Z</time>
      </trkpt>
      <trkpt lat="47.622424" lon="7.918069">
        <ele>465.022211</ele>
        <time>2021-11-07T14:21:50.620Z</time>
      </trkpt>
      <trkpt lat="47.622587" lon="7.917873">
        <ele>462.945466</ele>
        <time>2021-11-07T14:21:52.434Z</time>
      </trkpt>
      <trkpt lat="47.622656" lon="7.917625">
        <ele>461.155529</ele>
        <time>2021-11-07T14:21:53.997Z</time>
      </trkpt>
      <trkpt lat="47.622677" lon="7.917170">
        <ele>458.112919</ele>
        <time>2021-11-07T14:21:56.653Z</time>
      </trkpt>
      <trkpt lat="47.622647" lon="7.916647">
        <ele>454.611146</ele>
        <time>2021-11-07T14:21:59.689Z</time>
      </trkpt>
      <trkpt lat="47.622576" lon="7.916379">
        <ele>452.690045</ele>
        <time>2021-11-07T14:22:01.345Z</time>
      </trkpt>
      <trkpt lat="47.622393" lon="7.916077">
        <ele>449.983814</ele>
        <time>2021-11-07T14:22:03.680Z</time>
      </trkpt>
      <trkpt lat="47.621809" lon="7.915582">
        <ele>443.345872</ele>
        <time>2021-11-07T14:22:09.493Z</time>
      </trkpt>
      <trkpt lat="47.621530" lon="7.915222">
        <ele>439.696644</ele>
        <time>2021-11-07T14:22:12.699Z</time>
      </trkpt>
      <trkpt lat="47.621037" lon="7.914355">
        <ele>432.141716</ele>
        <time>2021-11-07T14:22:19.329Z</time>
      </trkpt>
      <trkpt lat="47.620869" lon="7.913635">
        <ele>427.031892</ele>
        <time>2021-11-07T14:22:23.692Z</time>
      </trkpt>
      <trkpt lat="47.620841" lon="7.913331">
        <ele>424.974166</ele>
        <time>2021-11-07T14:22:25.470Z</time>
      </trkpt>
      <trkpt lat="47.620822" lon="7.912670">
        <ele>420.537130</ele>
        <time>2021-11-07T14:22:29.299Z</time>
      </trkpt>
      <trkpt lat="47.620858" lon="7.912289">
        <ele>417.956964</ele>
        <time>2021-11-07T14:22:31.559Z</time>
      </trkpt>
      <trkpt lat="47.620910" lon="7.911951">
        <ele>415.631867</ele>
        <time>2021-11-07T14:22:33.574Z</time>
      </trkpt>
      <trkpt lat="47.620953" lon="7.911653">
        <ele>414.042631</ele>
        <time>2021-11-07T14:22:35.364Z</time>
      </trkpt>
      <trkpt lat="47.620946" lon="7.911321">
        <ele>412.376998</ele>
        <time>2021-11-07T14:22:37.334Z</time>
      </trkpt>
      <trkpt lat="47.620846" lon="7.911023">
        <ele>410.707721</ele>
        <time>2021-11-07T14:22:39.306Z</time>
      </trkpt>
      <trkpt lat="47.620625" lon="7.910808">
        <ele>408.741616</ele>
        <time>2021-11-07T14:22:41.635Z</time>
      </trkpt>
      <trkpt lat="47.620181" lon="7.910694">
        <ele>405.389343</ele>
        <time>2021-11-07T14:22:45.642Z</time>
      </trkpt>
      <trkpt lat="47.620162" lon="7.910587">
        <ele>404.834475</ele>
        <time>2021-11-07T14:22:46.310Z</time>
      </trkpt>
      <trkpt lat="47.620245" lon="7.910440">
        <ele>403.872878</ele>
        <time>2021-11-07T14:22:47.482Z</time>
      </trkpt>
      <trkpt lat="47.620712" lon="7.910483">
        <ele>400.918339</ele>
        <time>2021-11-07T14:22:51.936Z</time>
      </trkpt>
      <trkpt lat="47.621308" lon="7.910162">
        <ele>397.737082</ele>
        <time>2021-11-07T14:22:57.991Z</time>
      </trkpt>
      <trkpt lat="47.621461" lon="7.910146">
        <ele>396.967531</ele>
        <time>2021-11-07T14:22:59.402Z</time>
      </trkpt>
      <trkpt lat="47.622368" lon="7.910396">
        <ele>392.364717</ele>
        <time>2021-11-07T14:23:08.101Z</time>
      </trkpt>
      <trkpt lat="47.622666" lon="7.910254">
        <ele>390.856976</ele>
        <time>2021-11-07T14:23:11.115Z</time>
      </trkpt>
      <trkpt lat="47.622755" lon="7.910176">
        <ele>390.359035</ele>
        <time>2021-11-07T14:23:12.066Z</time>
      </trkpt>
      <trkpt lat="47.622850" lon="7.910055">
        <ele>389.755902</ele>
        <time>2021-11-07T14:23:13.280Z</time>
      </trkpt>
      <trkpt lat="47.623414" lon="7.909173">
        <ele>385.808482</ele>
        <time>2021-11-07T14:23:21.124Z</time>
      </trkpt>
      <trkpt lat="47.623851" lon="7.909030">
        <ele>383.365684</ele>
        <time>2021-11-07T14:23:25.296Z</time>
      </trkpt>
      <trkpt lat="47.624367" lon="7.909092">
        <ele>379.798853</ele>
        <time>2021-11-07T14:23:30.214Z</time>
      </trkpt>
      <trkpt lat="47.624823" lon="7.909229">
        <ele>376.593292</ele>
        <time>2021-11-07T14:23:34.426Z</time>
      </trkpt>
      <trkpt lat="47.624962" lon="7.909272">
        <ele>375.615000</ele>
        <time>2021-11-07T14:23:35.657Z</time>
      </trkpt>
      <trkpt lat="47.625366" lon="7.909623">
        <ele>372.389378</ele>
        <time>2021-11-07T14:23:39.776Z</time>
      </trkpt>
      <trkpt lat="47.625586" lon="7.909712">
        <ele>370.436075</ele>
        <time>2021-11-07T14:23:41.763Z</time>
      </trkpt>
      <trkpt lat="47.625630" lon="7.909700">
        <ele>370.021640</ele>
        <time>2021-11-07T14:23:42.135Z</time>
      </trkpt>
      <trkpt lat="47.625660" lon="7.909693">
        <ele>369.740311</ele>
        <time>2021-11-07T14:23:42.391Z</time>
      </trkpt>
      <trkpt lat="47.625738" lon="7.909657">
        <ele>368.983584</ele>
        <time>2021-11-07T14:23:43.138Z</time>
      </trkpt>
      <trkpt lat="47.625820" lon="7.909530">
        <ele>367.885509</ele>
        <time>2021-11-07T14:23:44.174Z</time>
      </trkpt>
      <trkpt lat="47.625875" lon="7.909372">
        <ele>366.775225</ele>
        <time>2021-11-07T14:23:45.180Z</time>
      </trkpt>
      <trkpt lat="47.626074" lon="7.908682">
        <ele>362.089353</ele>
        <time>2021-11-07T14:23:49.549Z</time>
      </trkpt>
      <trkpt lat="47.626373" lon="7.908242">
        <ele>358.188217</ele>
        <time>2021-11-07T14:23:53.180Z</time>
      </trkpt>
      <trkpt lat="47.626436" lon="7.907974">
        <ele>356.416114</ele>
        <time>2021-11-07T14:23:54.808Z</time>
      </trkpt>
      <trkpt lat="47.626446" lon="7.907798">
        <ele>355.313372</ele>
        <time>2021-11-07T14:23:55.889Z</time>
      </trkpt>
      <trkpt lat="47.626442" lon="7.907543">
        <ele>354.659919</ele>
        <time>2021-11-07T14:23:57.378Z</time>
      </trkpt>
      <trkpt lat="47.626436" lon="7.907187">
        <ele>353.788421</ele>
        <time>2021-11-07T14:23:59.609Z</time>
      </trkpt>
      <trkpt lat="47.626436" lon="7.907061">
        <ele>353.480066</ele>
        <time>2021-11-07T14:24:00.432Z</time>
      </trkpt>
      <trkpt lat="47.626436" lon="7.906623">
        <ele>352.408164</ele>
        <time>2021-11-07T14:24:03.298Z</time>
      </trkpt>
      <trkpt lat="47.626439" lon="7.906299">
        <ele>351.615176</ele>
        <time>2021-11-07T14:24:05.452Z</time>
      </trkpt>
      <trkpt lat="47.626443" lon="7.905945">
        <ele>350.748723</ele>
        <time>2021-11-07T14:24:08.004Z</time>
      </trkpt>
      <trkpt lat="47.626460" lon="7.905124">
        <ele>348.738572</ele>
        <time>2021-11-07T14:24:14.910Z</time>
      </trkpt>
      <trkpt lat="47.626440" lon="7.905007">
        <ele>348.807725</ele>
        <time>2021-11-07T14:24:16.707Z</time>
      </trkpt>
      <trkpt lat="47.626399" lon="7.904961">
        <ele>348.854936</ele>
        <time>2021-11-07T14:24:17.507Z</time>
      </trkpt>
      <trkpt lat="47.626221" lon="7.904920">
        <ele>349.020381</ele>
        <time>2021-11-07T14:24:20.539Z</time>
      </trkpt>
      <trkpt lat="47.626086" lon="7.904879">
        <ele>349.146945</ele>
        <time>2021-11-07T14:24:23.726Z</time>
      </trkpt>
      <trkpt lat="47.625742" lon="7.904774">
        <ele>349.469514</ele>
        <time>2021-11-07T14:24:31.350Z</time>
      </trkpt>
      <trkpt lat="47.625516" lon="7.904701">
        <ele>349.681950</ele>
        <time>2021-11-07T14:24:35.983Z</time>
      </trkpt>
      <trkpt lat="47.625088" lon="7.904563">
        <ele>350.084229</ele>
        <time>2021-11-07T14:24:45.305Z</time>
      </trkpt>
      <trkpt lat="47.624956" lon="7.904522">
        <ele>350.208094</ele>
        <time>2021-11-07T14:24:48.061Z</time>
      </trkpt>
      <trkpt lat="47.624761" lon="7.904481">
        <ele>350.385026</ele>
        <time>2021-11-07T14:24:51.232Z</time>
      </trkpt>
      <trkpt lat="47.624565" lon="7.904455">
        <ele>350.315475</ele>
        <time>2021-11-07T14:24:54.292Z</time>
      </trkpt>
      <trkpt lat="47.624472" lon="7.904367">
        <ele>350.276489</ele>
        <time>2021-11-07T14:24:55.978Z</time>
      </trkpt>
      <trkpt lat="47.624451" lon="7.904332">
        <ele>350.265326</ele>
        <time>2021-11-07T14:24:56.499Z</time>
      </trkpt>
      <trkpt lat="47.624399" lon="7.904386">
        <ele>350.242893</ele>
        <time>2021-11-07T14:24:57.417Z</time>
      </trkpt>
      <trkpt lat="47.624263" lon="7.904484">
        <ele>350.189456</ele>
        <time>2021-11-07T14:24:59.638Z</time>
      </trkpt>
      <trkpt lat="47.624120" lon="7.904530">
        <ele>350.137739</ele>
        <time>2021-11-07T14:25:01.810Z</time>
      </trkpt>
      <trkpt lat="47.623650" lon="7.904642">
        <ele>349.969492</ele>
        <time>2021-11-07T14:25:08.089Z</time>
      </trkpt>
      <trkpt lat="47.622648" lon="7.904863">
        <ele>349.124639</ele>
        <time>2021-11-07T14:25:20.498Z</time>
      </trkpt>
      <trkpt lat="47.622424" lon="7.904919">
        <ele>348.763082</ele>
        <time>2021-11-07T14:25:23.106Z</time>
      </trkpt>
      <trkpt lat="47.622235" lon="7.904957">
        <ele>348.459509</ele>
        <time>2021-11-07T14:25:25.268Z</time>
      </trkpt>
      <trkpt lat="47.621248" lon="7.905159">
        <ele>346.865861</ele>
        <time>2021-11-07T14:25:36.379Z</time>
      </trkpt>
      <trkpt lat="47.621107" lon="7.905191">
        <ele>346.511495</ele>
        <time>2021-11-07T14:25:37.946Z</time>
      </trkpt>
      <trkpt lat="47.620699" lon="7.905223">
        <ele>345.496471</ele>
        <time>2021-11-07T14:25:42.373Z</time>
      </trkpt>
      <trkpt lat="47.620426" lon="7.905244">
        <ele>344.817337</ele>
        <time>2021-11-07T14:25:45.338Z</time>
      </trkpt>
      <trkpt lat="47.619447" lon="7.905300">
        <ele>342.374355</ele>
        <time>2021-11-07T14:25:55.466Z</time>
      </trkpt>
      <trkpt lat="47.619299" lon="7.905308">
        <ele>341.913802</ele>
        <time>2021-11-07T14:25:56.952Z</time>
      </trkpt>
      <trkpt lat="47.619155" lon="7.905319">
        <ele>341.465400</ele>
        <time>2021-11-07T14:25:58.516Z</time>
      </trkpt>
      <trkpt lat="47.618976" lon="7.905535">
        <ele>340.747861</ele>
        <time>2021-11-07T14:26:00.849Z</time>
      </trkpt>
      <trkpt lat="47.618920" lon="7.906208">
        <ele>339.326429</ele>
        <time>2021-11-07T14:26:05.610Z</time>
      </trkpt>
      <trkpt lat="47.618888" lon="7.906392">
        <ele>338.928102</ele>
        <time>2021-11-07T14:26:06.848Z</time>
      </trkpt>
      <trkpt lat="47.618867" lon="7.906514">
        <ele>338.664161</ele>
        <time>2021-11-07T14:26:07.705Z</time>
      </trkpt>
      <trkpt lat="47.618719" lon="7.906838">
        <ele>337.843742</ele>
        <time>2021-11-07T14:26:10.349Z</time>
      </trkpt>
      <trkpt lat="47.618703" lon="7.906856">
        <ele>337.781297</ele>
        <time>2021-11-07T14:26:10.529Z</time>
      </trkpt>
      <trkpt lat="47.618703" lon="7.906856">
        <ele>337.781297</ele>
        <time>2021-11-07T14:26:10.571Z</time>
      </trkpt>
      <trkpt lat="47.618703" lon="7.906856">
        <ele>337.781297</ele>
        <time>2021-11-07T14:26:10.571Z</time>
      </trkpt>
      <trkpt lat="47.618053" lon="7.907396">
        <ele>335.642940</ele>
        <time>2021-11-07T14:26:24.384Z</time>
      </trkpt>
      <trkpt lat="47.617404" lon="7.907935">
        <ele>333.633033</ele>
        <time>2021-11-07T14:26:38.172Z</time>
      </trkpt>
      <trkpt lat="47.617238" lon="7.908130">
        <ele>333.060849</ele>
        <time>2021-11-07T14:26:40.391Z</time>
      </trkpt>
      <trkpt lat="47.617086" lon="7.908230">
        <ele>332.611521</ele>
        <time>2021-11-07T14:26:42.200Z</time>
      </trkpt>
      <trkpt lat="47.616832" lon="7.908284">
        <ele>331.951694</ele>
        <time>2021-11-07T14:26:44.943Z</time>
      </trkpt>
      <trkpt lat="47.616604" lon="7.908203">
        <ele>331.768886</ele>
        <time>2021-11-07T14:26:47.464Z</time>
      </trkpt>
      <trkpt lat="47.616124" lon="7.907729">
        <ele>331.319272</ele>
        <time>2021-11-07T14:26:54.040Z</time>
      </trkpt>
      <trkpt lat="47.616009" lon="7.907686">
        <ele>331.226797</ele>
        <time>2021-11-07T14:26:55.530Z</time>
      </trkpt>
      <trkpt lat="47.615946" lon="7.907692">
        <ele>331.177573</ele>
        <time>2021-11-07T14:26:56.270Z</time>
      </trkpt>
      <trkpt lat="47.615821" lon="7.907747">
        <ele>331.075908</ele>
        <time>2021-11-07T14:26:58.322Z</time>
      </trkpt>
      <trkpt lat="47.615669" lon="7.907870">
        <ele>330.940901</ele>
        <time>2021-11-07T14:27:01.002Z</time>
      </trkpt>
      <trkpt lat="47.615460" lon="7.908111">
        <ele>330.734493</ele>
        <time>2021-11-07T14:27:05.373Z</time>
      </trkpt>
      <trkpt lat="47.615374" lon="7.908222">
        <ele>330.645607</ele>
        <time>2021-11-07T14:27:07.291Z</time>
      </trkpt>
      <trkpt lat="47.615246" lon="7.908385">
        <ele>330.620301</ele>
        <time>2021-11-07T14:27:10.315Z</time>
      </trkpt>
      <trkpt lat="47.615085" lon="7.908567">
        <ele>330.806296</ele>
        <time>2021-11-07T14:27:13.726Z</time>
      </trkpt>
      <trkpt lat="47.614876" lon="7.908760">
        <ele>331.032507</ele>
        <time>2021-11-07T14:27:18.044Z</time>
      </trkpt>
      <trkpt lat="47.614784" lon="7.908839">
        <ele>331.130184</ele>
        <time>2021-11-07T14:27:19.849Z</time>
      </trkpt>
      <trkpt lat="47.614412" lon="7.909095">
        <ele>331.506991</ele>
        <time>2021-11-07T14:27:27.119Z</time>
      </trkpt>
      <trkpt lat="47.614063" lon="7.909285">
        <ele>331.848588</ele>
        <time>2021-11-07T14:27:34.173Z</time>
      </trkpt>
      <trkpt lat="47.613934" lon="7.909339">
        <ele>331.971750</ele>
        <time>2021-11-07T14:27:36.734Z</time>
      </trkpt>
      <trkpt lat="47.613360" lon="7.909602">
        <ele>332.584719</ele>
        <time>2021-11-07T14:27:49.483Z</time>
      </trkpt>
      <trkpt lat="47.613280" lon="7.909624">
        <ele>332.674266</ele>
        <time>2021-11-07T14:27:51.199Z</time>
      </trkpt>
      <trkpt lat="47.612897" lon="7.909812">
        <ele>333.118267</ele>
        <time>2021-11-07T14:27:59.783Z</time>
      </trkpt>
      <trkpt lat="47.612300" lon="7.910095">
        <ele>333.808048</ele>
        <time>2021-11-07T14:28:11.409Z</time>
      </trkpt>
      <trkpt lat="47.612216" lon="7.910134">
        <ele>333.904919</ele>
        <time>2021-11-07T14:28:12.794Z</time>
      </trkpt>
      <trkpt lat="47.612131" lon="7.910214">
        <ele>334.015710</ele>
        <time>2021-11-07T14:28:14.663Z</time>
      </trkpt>
      <trkpt lat="47.612082" lon="7.910269">
        <ele>334.083338</ele>
        <time>2021-11-07T14:28:15.728Z</time>
      </trkpt>
      <trkpt lat="47.612020" lon="7.910364">
        <ele>334.181441</ele>
        <time>2021-11-07T14:28:17.266Z</time>
      </trkpt>
      <trkpt lat="47.611986" lon="7.910466">
        <ele>334.196062</ele>
        <time>2021-11-07T14:28:18.571Z</time>
      </trkpt>
      <trkpt lat="47.611981" lon="7.910534">
        <ele>334.196758</ele>
        <time>2021-11-07T14:28:19.212Z</time>
      </trkpt>
      <trkpt lat="47.611988" lon="7.910610">
        <ele>334.197539</ele>
        <time>2021-11-07T14:28:20.159Z</time>
      </trkpt>
      <trkpt lat="47.611994" lon="7.910676">
        <ele>334.198217</ele>
        <time>2021-11-07T14:28:21.075Z</time>
      </trkpt>
      <trkpt lat="47.612005" lon="7.910790">
        <ele>334.199389</ele>
        <time>2021-11-07T14:28:22.321Z</time>
      </trkpt>
      <trkpt lat="47.612029" lon="7.910940">
        <ele>334.200958</ele>
        <time>2021-11-07T14:28:24.205Z</time>
      </trkpt>
      <trkpt lat="47.611260" lon="7.911383">
        <ele>334.213412</ele>
        <time>2021-11-07T14:28:37.442Z</time>
      </trkpt>
      <trkpt lat="47.610416" lon="7.911983">
        <ele>333.770230</ele>
        <time>2021-11-07T14:28:49.355Z</time>
      </trkpt>
      <trkpt lat="47.610054" lon="7.912196">
        <ele>333.268472</ele>
        <time>2021-11-07T14:28:53.828Z</time>
      </trkpt>
      <trkpt lat="47.609914" lon="7.912278">
        <ele>333.074542</ele>
        <time>2021-11-07T14:28:55.556Z</time>
      </trkpt>
      <trkpt lat="47.608679" lon="7.912703">
        <ele>331.400151</ele>
        <time>2021-11-07T14:29:10.284Z</time>
      </trkpt>
      <trkpt lat="47.607663" lon="7.913198">
        <ele>329.900665</ele>
        <time>2021-11-07T14:29:22.608Z</time>
      </trkpt>
      <trkpt lat="47.607292" lon="7.913435">
        <ele>329.343779</ele>
        <time>2021-11-07T14:29:27.307Z</time>
      </trkpt>
      <trkpt lat="47.606938" lon="7.913697">
        <ele>328.897640</ele>
        <time>2021-11-07T14:29:32.081Z</time>
      </trkpt>
      <trkpt lat="47.606706" lon="7.913869">
        <ele>328.605156</ele>
        <time>2021-11-07T14:29:35.268Z</time>
      </trkpt>
      <trkpt lat="47.606558" lon="7.913988">
        <ele>328.415313</ele>
        <time>2021-11-07T14:29:37.359Z</time>
      </trkpt>
      <trkpt lat="47.606450" lon="7.914067">
        <ele>328.279517</ele>
        <time>2021-11-07T14:29:38.859Z</time>
      </trkpt>
      <trkpt lat="47.606200" lon="7.914255">
        <ele>327.963432</ele>
        <time>2021-11-07T14:29:42.273Z</time>
      </trkpt>
      <trkpt lat="47.605929" lon="7.914457">
        <ele>327.621409</ele>
        <time>2021-11-07T14:29:45.956Z</time>
      </trkpt>
      <trkpt lat="47.605648" lon="7.914613">
        <ele>327.191889</ele>
        <time>2021-11-07T14:29:49.520Z</time>
      </trkpt>
      <trkpt lat="47.605408" lon="7.914750">
        <ele>326.532176</ele>
        <time>2021-11-07T14:29:52.471Z</time>
      </trkpt>
      <trkpt lat="47.605105" lon="7.914869">
        <ele>325.728082</ele>
        <time>2021-11-07T14:29:56.042Z</time>
      </trkpt>
      <trkpt lat="47.604722" lon="7.914915">
        <ele>324.742332</ele>
        <time>2021-11-07T14:30:00.213Z</time>
      </trkpt>
      <trkpt lat="47.604393" lon="7.914885">
        <ele>323.896735</ele>
        <time>2021-11-07T14:30:03.631Z</time>
      </trkpt>
      <trkpt lat="47.604062" lon="7.914772">
        <ele>323.025396</ele>
        <time>2021-11-07T14:30:07.021Z</time>
      </trkpt>
      <trkpt lat="47.603884" lon="7.914671">
        <ele>322.376428</ele>
        <time>2021-11-07T14:30:08.809Z</time>
      </trkpt>
      <trkpt lat="47.603615" lon="7.914449">
        <ele>320.966850</ele>
        <time>2021-11-07T14:30:11.757Z</time>
      </trkpt>
      <trkpt lat="47.603373" lon="7.914188">
        <ele>319.596743</ele>
        <time>2021-11-07T14:30:14.600Z</time>
      </trkpt>
      <trkpt lat="47.603038" lon="7.913754">
        <ele>317.559993</ele>
        <time>2021-11-07T14:30:18.792Z</time>
      </trkpt>
      <trkpt lat="47.602861" lon="7.913538">
        <ele>316.510430</ele>
        <time>2021-11-07T14:30:20.996Z</time>
      </trkpt>
      <trkpt lat="47.602742" lon="7.913448">
        <ele>315.898780</ele>
        <time>2021-11-07T14:30:22.232Z</time>
      </trkpt>
      <trkpt lat="47.602118" lon="7.913280">
        <ele>313.388446</ele>
        <time>2021-11-07T14:30:28.287Z</time>
      </trkpt>
      <trkpt lat="47.600086" lon="7.913316">
        <ele>307.091652</ele>
        <time>2021-11-07T14:30:49.100Z</time>
      </trkpt>
      <trkpt lat="47.599361" lon="7.913211">
        <ele>305.378887</ele>
        <time>2021-11-07T14:30:56.950Z</time>
      </trkpt>
      <trkpt lat="47.598263" lon="7.912768">
        <ele>303.198551</ele>
        <time>2021-11-07T14:31:09.586Z</time>
      </trkpt>
      <trkpt lat="47.597324" lon="7.912182">
        <ele>301.602747</ele>
        <time>2021-11-07T14:31:21.393Z</time>
      </trkpt>
      <trkpt lat="47.596928" lon="7.912047">
        <ele>301.115469</ele>
        <time>2021-11-07T14:31:26.219Z</time>
      </trkpt>
      <trkpt lat="47.596657" lon="7.912027">
        <ele>300.847739</ele>
        <time>2021-11-07T14:31:29.490Z</time>
      </trkpt>
      <trkpt lat="47.596383" lon="7.912050">
        <ele>300.576946</ele>
        <time>2021-11-07T14:31:32.818Z</time>
      </trkpt>
      <trkpt lat="47.595919" lon="7.912182">
        <ele>300.110763</ele>
        <time>2021-11-07T14:31:38.638Z</time>
      </trkpt>
      <trkpt lat="47.595049" lon="7.912419">
        <ele>299.564259</ele>
        <time>2021-11-07T14:31:49.924Z</time>
      </trkpt>
      <trkpt lat="47.594246" lon="7.912426">
        <ele>299.496684</ele>
        <time>2021-11-07T14:32:01.047Z</time>
      </trkpt>
      <trkpt lat="47.593192" lon="7.912179">
        <ele>299.732236</ele>
        <time>2021-11-07T14:32:18.934Z</time>
      </trkpt>
      <trkpt lat="47.592198" lon="7.912030">
        <ele>300.398876</ele>
        <time>2021-11-07T14:32:37.851Z</time>
      </trkpt>
      <trkpt lat="47.591524" lon="7.911777">
        <ele>300.252658</ele>
        <time>2021-11-07T14:32:49.149Z</time>
      </trkpt>
      <trkpt lat="47.591361" lon="7.911643">
        <ele>300.031028</ele>
        <time>2021-11-07T14:32:52.511Z</time>
      </trkpt>
      <trkpt lat="47.591227" lon="7.911486">
        <ele>299.827938</ele>
        <time>2021-11-07T14:32:54.520Z</time>
      </trkpt>
      <trkpt lat="47.590486" lon="7.910371">
        <ele>298.572516</ele>
        <time>2021-11-07T14:33:06.246Z</time>
      </trkpt>
      <trkpt lat="47.590199" lon="7.910097">
        <ele>297.889833</ele>
        <time>2021-11-07T14:33:09.827Z</time>
      </trkpt>
      <trkpt lat="47.589984" lon="7.909953">
        <ele>297.379585</ele>
        <time>2021-11-07T14:33:12.317Z</time>
      </trkpt>
      <trkpt lat="47.589984" lon="7.909953">
        <ele>297.379585</ele>
        <time>2021-11-07T14:33:12.329Z</time>
      </trkpt>
      <trkpt lat="47.589846" lon="7.909880">
        <ele>297.062688</ele>
        <time>2021-11-07T14:33:13.920Z</time>
      </trkpt>
      <trkpt lat="47.589453" lon="7.909790">
        <ele>296.202618</ele>
        <time>2021-11-07T14:33:18.144Z</time>
      </trkpt>
      <trkpt lat="47.589186" lon="7.909798">
        <ele>295.625025</ele>
        <time>2021-11-07T14:33:20.981Z</time>
      </trkpt>
      <trkpt lat="47.588985" lon="7.909827">
        <ele>295.188243</ele>
        <time>2021-11-07T14:33:23.267Z</time>
      </trkpt>
      <trkpt lat="47.587926" lon="7.910125">
        <ele>293.773115</ele>
        <time>2021-11-07T14:33:35.774Z</time>
      </trkpt>
      <trkpt lat="47.587479" lon="7.910228">
        <ele>293.304752</ele>
        <time>2021-11-07T14:33:41.832Z</time>
      </trkpt>
      <trkpt lat="47.587167" lon="7.910236">
        <ele>292.981671</ele>
        <time>2021-11-07T14:33:45.946Z</time>
      </trkpt>
      <trkpt lat="47.586813" lon="7.910134">
        <ele>292.653432</ele>
        <time>2021-11-07T14:33:50.380Z</time>
      </trkpt>
      <trkpt lat="47.586540" lon="7.909941">
        <ele>292.438496</ele>
        <time>2021-11-07T14:33:54.067Z</time>
      </trkpt>
      <trkpt lat="47.586265" lon="7.909589">
        <ele>292.180310</ele>
        <time>2021-11-07T14:33:58.446Z</time>
      </trkpt>
      <trkpt lat="47.586062" lon="7.909215">
        <ele>291.950204</ele>
        <time>2021-11-07T14:34:02.523Z</time>
      </trkpt>
      <trkpt lat="47.585956" lon="7.908983">
        <ele>291.815888</ele>
        <time>2021-11-07T14:34:04.967Z</time>
      </trkpt>
      <trkpt lat="47.585899" lon="7.908777">
        <ele>291.709161</ele>
        <time>2021-11-07T14:34:07.021Z</time>
      </trkpt>
      <trkpt lat="47.585750" lon="7.908439">
        <ele>291.515615</ele>
        <time>2021-11-07T14:34:10.626Z</time>
      </trkpt>
      <trkpt lat="47.585760" lon="7.908367">
        <ele>291.480379</ele>
        <time>2021-11-07T14:34:11.340Z</time>
      </trkpt>
      <trkpt lat="47.585751" lon="7.908295">
        <ele>291.495012</ele>
        <time>2021-11-07T14:34:12.118Z</time>
      </trkpt>
      <trkpt lat="47.585761" lon="7.908160">
        <ele>291.542640</ele>
        <time>2021-11-07T14:34:13.902Z</time>
      </trkpt>
      <trkpt lat="47.585759" lon="7.908093">
        <ele>291.566159</ele>
        <time>2021-11-07T14:34:14.696Z</time>
      </trkpt>
      <trkpt lat="47.585745" lon="7.907994">
        <ele>291.601632</ele>
        <time>2021-11-07T14:34:16.007Z</time>
      </trkpt>
      <trkpt lat="47.585709" lon="7.907887">
        <ele>291.643565</ele>
        <time>2021-11-07T14:34:17.552Z</time>
      </trkpt>
      <trkpt lat="47.585496" lon="7.906982">
        <ele>291.979707</ele>
        <time>2021-11-07T14:34:27.693Z</time>
      </trkpt>
      <trkpt lat="47.585477" lon="7.906769">
        <ele>292.055055</ele>
        <time>2021-11-07T14:34:30.238Z</time>
      </trkpt>
      <trkpt lat="47.585522" lon="7.905992">
        <ele>292.328545</ele>
        <time>2021-11-07T14:34:40.422Z</time>
      </trkpt>
      <trkpt lat="47.585585" lon="7.905551">
        <ele>292.600174</ele>
        <time>2021-11-07T14:34:46.753Z</time>
      </trkpt>
      <trkpt lat="47.585693" lon="7.905272">
        <ele>292.878367</ele>
        <time>2021-11-07T14:34:51.354Z</time>
      </trkpt>
      <trkpt lat="47.585762" lon="7.905099">
        <ele>293.052178</ele>
        <time>2021-11-07T14:34:54.181Z</time>
      </trkpt>
      <trkpt lat="47.585958" lon="7.904606">
        <ele>293.547078</ele>
        <time>2021-11-07T14:35:02.143Z</time>
      </trkpt>
      <trkpt lat="47.586407" lon="7.903407">
        <ele>294.727244</ele>
        <time>2021-11-07T14:35:20.078Z</time>
      </trkpt>
      <trkpt lat="47.586847" lon="7.902221">
        <ele>295.513531</ele>
        <time>2021-11-07T14:35:37.082Z</time>
      </trkpt>
      <trkpt lat="47.587029" lon="7.901746">
        <ele>295.830871</ele>
        <time>2021-11-07T14:35:43.696Z</time>
      </trkpt>
      <trkpt lat="47.587506" lon="7.900489">
        <ele>296.666687</ele>
        <time>2021-11-07T14:36:00.727Z</time>
      </trkpt>
      <trkpt lat="47.587961" lon="7.899254">
        <ele>297.480092</ele>
        <time>2021-11-07T14:36:18.168Z</time>
      </trkpt>
      <trkpt lat="47.588436" lon="7.898021">
        <ele>298.393840</ele>
        <time>2021-11-07T14:36:36.236Z</time>
      </trkpt>
      <trkpt lat="47.588506" lon="7.897839">
        <ele>298.537693</ele>
        <time>2021-11-07T14:36:38.709Z</time>
      </trkpt>
      <trkpt lat="47.588808" lon="7.897009">
        <ele>299.185214</ele>
        <time>2021-11-07T14:36:50.993Z</time>
      </trkpt>
      <trkpt lat="47.589118" lon="7.896174">
        <ele>299.742193</ele>
        <time>2021-11-07T14:37:03.390Z</time>
      </trkpt>
      <trkpt lat="47.589590" lon="7.894990">
        <ele>300.232556</ele>
        <time>2021-11-07T14:37:19.812Z</time>
      </trkpt>
      <trkpt lat="47.589932" lon="7.894260">
        <ele>300.549456</ele>
        <time>2021-11-07T14:37:29.377Z</time>
      </trkpt>
      <trkpt lat="47.589960" lon="7.894201">
        <ele>300.575177</ele>
        <time>2021-11-07T14:37:30.069Z</time>
      </trkpt>
      <trkpt lat="47.590704" lon="7.892594">
        <ele>300.072950</ele>
        <time>2021-11-07T14:37:48.166Z</time>
      </trkpt>
      <trkpt lat="47.591003" lon="7.891941">
        <ele>299.841634</ele>
        <time>2021-11-07T14:37:54.839Z</time>
      </trkpt>
      <trkpt lat="47.591247" lon="7.891264">
        <ele>299.232797</ele>
        <time>2021-11-07T14:38:01.332Z</time>
      </trkpt>
      <trkpt lat="47.591381" lon="7.890797">
        <ele>298.830262</ele>
        <time>2021-11-07T14:38:05.363Z</time>
      </trkpt>
      <trkpt lat="47.591692" lon="7.889232">
        <ele>297.590903</ele>
        <time>2021-11-07T14:38:18.245Z</time>
      </trkpt>
      <trkpt lat="47.591728" lon="7.889070">
        <ele>297.489422</ele>
        <time>2021-11-07T14:38:19.549Z</time>
      </trkpt>
      <trkpt lat="47.591763" lon="7.888925">
        <ele>297.397794</ele>
        <time>2021-11-07T14:38:20.752Z</time>
      </trkpt>
      <trkpt lat="47.591866" lon="7.888529">
        <ele>297.145276</ele>
        <time>2021-11-07T14:38:24.137Z</time>
      </trkpt>
      <trkpt lat="47.592202" lon="7.887383">
        <ele>296.401811</ele>
        <time>2021-11-07T14:38:34.600Z</time>
      </trkpt>
      <trkpt lat="47.592295" lon="7.887060">
        <ele>296.192861</ele>
        <time>2021-11-07T14:38:37.698Z</time>
      </trkpt>
      <trkpt lat="47.592409" lon="7.886663">
        <ele>296.320311</ele>
        <time>2021-11-07T14:38:41.978Z</time>
      </trkpt>
      <trkpt lat="47.592651" lon="7.885826">
        <ele>296.674937</ele>
        <time>2021-11-07T14:38:52.999Z</time>
      </trkpt>
      <trkpt lat="47.592802" lon="7.885426">
        <ele>296.853443</ele>
        <time>2021-11-07T14:38:58.603Z</time>
      </trkpt>
      <trkpt lat="47.593166" lon="7.884637">
        <ele>297.226014</ele>
        <time>2021-11-07T14:39:10.147Z</time>
      </trkpt>
      <trkpt lat="47.593354" lon="7.884147">
        <ele>297.449248</ele>
        <time>2021-11-07T14:39:17.268Z</time>
      </trkpt>
      <trkpt lat="47.593420" lon="7.883957">
        <ele>297.533878</ele>
        <time>2021-11-07T14:39:19.973Z</time>
      </trkpt>
      <trkpt lat="47.593465" lon="7.883826">
        <ele>297.592093</ele>
        <time>2021-11-07T14:39:21.982Z</time>
      </trkpt>
      <trkpt lat="47.593516" lon="7.883635">
        <ele>297.673437</ele>
        <time>2021-11-07T14:39:24.829Z</time>
      </trkpt>
      <trkpt lat="47.593602" lon="7.883202">
        <ele>297.852177</ele>
        <time>2021-11-07T14:39:30.866Z</time>
      </trkpt>
      <trkpt lat="47.593695" lon="7.882631">
        <ele>298.084780</ele>
        <time>2021-11-07T14:39:37.779Z</time>
      </trkpt>
      <trkpt lat="47.593743" lon="7.882378">
        <ele>298.188851</ele>
        <time>2021-11-07T14:39:40.141Z</time>
      </trkpt>
      <trkpt lat="47.593831" lon="7.882052">
        <ele>298.058265</ele>
        <time>2021-11-07T14:39:43.430Z</time>
      </trkpt>
      <trkpt lat="47.593960" lon="7.881629">
        <ele>297.478211</ele>
        <time>2021-11-07T14:39:47.158Z</time>
      </trkpt>
      <trkpt lat="47.593971" lon="7.881590">
        <ele>297.425392</ele>
        <time>2021-11-07T14:39:47.494Z</time>
      </trkpt>
      <trkpt lat="47.593986" lon="7.881532">
        <ele>297.347776</ele>
        <time>2021-11-07T14:39:47.964Z</time>
      </trkpt>
      <trkpt lat="47.594029" lon="7.881400">
        <ele>297.164613</ele>
        <time>2021-11-07T14:39:49.027Z</time>
      </trkpt>
      <trkpt lat="47.594057" lon="7.881307">
        <ele>297.037358</ele>
        <time>2021-11-07T14:39:49.826Z</time>
      </trkpt>
      <trkpt lat="47.594067" lon="7.881235">
        <ele>296.945509</ele>
        <time>2021-11-07T14:39:50.377Z</time>
      </trkpt>
      <trkpt lat="47.594067" lon="7.881089">
        <ele>296.763087</ele>
        <time>2021-11-07T14:39:51.527Z</time>
      </trkpt>
      <trkpt lat="47.594054" lon="7.881021">
        <ele>296.674775</ele>
        <time>2021-11-07T14:39:52.049Z</time>
      </trkpt>
      <trkpt lat="47.594054" lon="7.881021">
        <ele>296.674775</ele>
        <time>2021-11-07T14:39:52.053Z</time>
      </trkpt>
      <trkpt lat="47.594014" lon="7.880939">
        <ele>296.548325</ele>
        <time>2021-11-07T14:39:52.776Z</time>
      </trkpt>
      <trkpt lat="47.593967" lon="7.880875">
        <ele>296.430099</ele>
        <time>2021-11-07T14:39:53.488Z</time>
      </trkpt>
      <trkpt lat="47.593811" lon="7.880736">
        <ele>296.092901</ele>
        <time>2021-11-07T14:39:55.525Z</time>
      </trkpt>
      <trkpt lat="47.593729" lon="7.880642">
        <ele>295.900869</ele>
        <time>2021-11-07T14:39:56.615Z</time>
      </trkpt>
      <trkpt lat="47.593692" lon="7.880558">
        <ele>295.775509</ele>
        <time>2021-11-07T14:39:57.360Z</time>
      </trkpt>
      <trkpt lat="47.593635" lon="7.880635">
        <ele>295.632648</ele>
        <time>2021-11-07T14:39:58.195Z</time>
      </trkpt>
      <trkpt lat="47.593588" lon="7.880675">
        <ele>295.532245</ele>
        <time>2021-11-07T14:39:58.811Z</time>
      </trkpt>
      <trkpt lat="47.593483" lon="7.880648">
        <ele>295.334801</ele>
        <time>2021-11-07T14:39:59.949Z</time>
      </trkpt>
      <trkpt lat="47.593164" lon="7.880480">
        <ele>294.528174</ele>
        <time>2021-11-07T14:40:03.419Z</time>
      </trkpt>
      <trkpt lat="47.592855" lon="7.880299">
        <ele>293.417234</ele>
        <time>2021-11-07T14:40:06.701Z</time>
      </trkpt>
      <trkpt lat="47.592558" lon="7.880084">
        <ele>292.312086</ele>
        <time>2021-11-07T14:40:09.912Z</time>
      </trkpt>
      <trkpt lat="47.592176" lon="7.879859">
        <ele>290.937659</ele>
        <time>2021-11-07T14:40:13.960Z</time>
      </trkpt>
      <trkpt lat="47.591747" lon="7.879696">
        <ele>289.456810</ele>
        <time>2021-11-07T14:40:18.433Z</time>
      </trkpt>
      <trkpt lat="47.591433" lon="7.879589">
        <ele>288.571325</ele>
        <time>2021-11-07T14:40:21.766Z</time>
      </trkpt>
      <trkpt lat="47.591348" lon="7.879568">
        <ele>288.386177</ele>
        <time>2021-11-07T14:40:22.681Z</time>
      </trkpt>
      <trkpt lat="47.591318" lon="7.879563">
        <ele>288.321313</ele>
        <time>2021-11-07T14:40:23.007Z</time>
      </trkpt>
      <trkpt lat="47.591234" lon="7.879550">
        <ele>288.139850</ele>
        <time>2021-11-07T14:40:23.891Z</time>
      </trkpt>
      <trkpt lat="47.591201" lon="7.878391">
        <ele>286.458911</ele>
        <time>2021-11-07T14:40:32.327Z</time>
      </trkpt>
      <trkpt lat="47.591165" lon="7.877839">
        <ele>285.655306</ele>
        <time>2021-11-07T14:40:36.431Z</time>
      </trkpt>
      <trkpt lat="47.591021" lon="7.877714">
        <ele>285.296787</ele>
        <time>2021-11-07T14:40:38.347Z</time>
      </trkpt>
      <trkpt lat="47.590631" lon="7.877615">
        <ele>284.763504</ele>
        <time>2021-11-07T14:40:43.042Z</time>
      </trkpt>
      <trkpt lat="47.590500" lon="7.877526">
        <ele>284.616051</ele>
        <time>2021-11-07T14:40:44.721Z</time>
      </trkpt>
      <trkpt lat="47.590479" lon="7.877434">
        <ele>284.549021</ele>
        <time>2021-11-07T14:40:45.494Z</time>
      </trkpt>
      <trkpt lat="47.590532" lon="7.877177">
        <ele>284.363549</ele>
        <time>2021-11-07T14:40:47.800Z</time>
      </trkpt>
      <trkpt lat="47.590592" lon="7.876946">
        <ele>284.192714</ele>
        <time>2021-11-07T14:40:49.756Z</time>
      </trkpt>
      <trkpt lat="47.590643" lon="7.876593">
        <ele>283.943570</ele>
        <time>2021-11-07T14:40:52.826Z</time>
      </trkpt>
      <trkpt lat="47.590771" lon="7.875667">
        <ele>283.291223</ele>
        <time>2021-11-07T14:41:00.855Z</time>
      </trkpt>
      <trkpt lat="47.590851" lon="7.875195">
        <ele>283.075198</ele>
        <time>2021-11-07T14:41:05.023Z</time>
      </trkpt>
      <trkpt lat="47.591067" lon="7.874101">
        <ele>282.657160</ele>
        <time>2021-11-07T14:41:15.353Z</time>
      </trkpt>
      <trkpt lat="47.591105" lon="7.873760">
        <ele>282.530411</ele>
        <time>2021-11-07T14:41:18.541Z</time>
      </trkpt>
      <trkpt lat="47.591074" lon="7.872343">
        <ele>281.935745</ele>
        <time>2021-11-07T14:41:31.030Z</time>
      </trkpt>
      <trkpt lat="47.590993" lon="7.871168">
        <ele>281.357140</ele>
        <time>2021-11-07T14:41:40.967Z</time>
      </trkpt>
      <trkpt lat="47.590885" lon="7.870375">
        <ele>280.960825</ele>
        <time>2021-11-07T14:41:47.786Z</time>
      </trkpt>
      <trkpt lat="47.590882" lon="7.870356">
        <ele>280.951266</ele>
        <time>2021-11-07T14:41:47.968Z</time>
      </trkpt>
      <trkpt lat="47.590872" lon="7.870300">
        <ele>280.925504</ele>
        <time>2021-11-07T14:41:48.553Z</time>
      </trkpt>
      <trkpt lat="47.590870" lon="7.870288">
        <ele>280.923745</ele>
        <time>2021-11-07T14:41:48.700Z</time>
      </trkpt>
      <trkpt lat="47.590773" lon="7.869984">
        <ele>280.875888</ele>
        <time>2021-11-07T14:41:51.599Z</time>
      </trkpt>
      <trkpt lat="47.590705" lon="7.869768">
        <ele>280.841967</ele>
        <time>2021-11-07T14:41:53.818Z</time>
      </trkpt>
      <trkpt lat="47.590470" lon="7.869069">
        <ele>280.730825</ele>
        <time>2021-11-07T14:42:00.850Z</time>
      </trkpt>
      <trkpt lat="47.590421" lon="7.868927">
        <ele>280.708126</ele>
        <time>2021-11-07T14:42:02.317Z</time>
      </trkpt>
      <trkpt lat="47.590348" lon="7.868680">
        <ele>280.669751</ele>
        <time>2021-11-07T14:42:05.191Z</time>
      </trkpt>
      <trkpt lat="47.590292" lon="7.868520">
        <ele>280.644099</ele>
        <time>2021-11-07T14:42:06.819Z</time>
      </trkpt>
      <trkpt lat="47.590365" lon="7.868441">
        <ele>280.625030</ele>
        <time>2021-11-07T14:42:08.209Z</time>
      </trkpt>
      <trkpt lat="47.590348" lon="7.868400">
        <ele>280.618181</ele>
        <time>2021-11-07T14:42:08.874Z</time>
      </trkpt>
      <trkpt lat="47.590333" lon="7.867008">
        <ele>280.739929</ele>
        <time>2021-11-07T14:42:23.867Z</time>
      </trkpt>
      <trkpt lat="47.590274" lon="7.866644">
        <ele>280.820832</ele>
        <time>2021-11-07T14:42:28.365Z</time>
      </trkpt>
      <trkpt lat="47.590266" lon="7.866595">
        <ele>280.831727</ele>
        <time>2021-11-07T14:42:28.902Z</time>
      </trkpt>
      <trkpt lat="47.590251" lon="7.866509">
        <ele>280.850924</ele>
        <time>2021-11-07T14:42:29.781Z</time>
      </trkpt>
      <trkpt lat="47.589823" lon="7.864422">
        <ele>281.146892</ele>
        <time>2021-11-07T14:42:53.051Z</time>
      </trkpt>
      <trkpt lat="47.589471" lon="7.862994">
        <ele>281.185676</ele>
        <time>2021-11-07T14:43:07.797Z</time>
      </trkpt>
      <trkpt lat="47.587447" lon="7.853842">
        <ele>280.838215</ele>
        <time>2021-11-07T14:44:42.445Z</time>
      </trkpt>
      <trkpt lat="47.587300" lon="7.853345">
        <ele>280.863435</ele>
        <time>2021-11-07T14:44:48.015Z</time>
      </trkpt>
      <trkpt lat="47.586757" lon="7.850579">
        <ele>281.281480</ele>
        <time>2021-11-07T14:45:18.771Z</time>
      </trkpt>
      <trkpt lat="47.586522" lon="7.848600">
        <ele>281.701318</ele>
        <time>2021-11-07T14:45:40.922Z</time>
      </trkpt>
      <trkpt lat="47.586484" lon="7.848370">
        <ele>281.753258</ele>
        <time>2021-11-07T14:45:43.572Z</time>
      </trkpt>
      <trkpt lat="47.586486" lon="7.847936">
        <ele>281.848455</ele>
        <time>2021-11-07T14:45:48.282Z</time>
      </trkpt>
      <trkpt lat="47.586452" lon="7.845634">
        <ele>282.057754</ele>
        <time>2021-11-07T14:46:12.539Z</time>
      </trkpt>
      <trkpt lat="47.586790" lon="7.842637">
        <ele>281.864747</ele>
        <time>2021-11-07T14:46:41.837Z</time>
      </trkpt>
      <trkpt lat="47.586802" lon="7.842180">
        <ele>281.814263</ele>
        <time>2021-11-07T14:46:46.117Z</time>
      </trkpt>
      <trkpt lat="47.586809" lon="7.842018">
        <ele>281.788001</ele>
        <time>2021-11-07T14:46:47.622Z</time>
      </trkpt>
      <trkpt lat="47.586920" lon="7.841604">
        <ele>281.711452</ele>
        <time>2021-11-07T14:46:51.798Z</time>
      </trkpt>
      <trkpt lat="47.587293" lon="7.838626">
        <ele>281.142394</ele>
        <time>2021-11-07T14:47:20.183Z</time>
      </trkpt>
      <trkpt lat="47.587628" lon="7.835942">
        <ele>280.502813</ele>
        <time>2021-11-07T14:47:45.171Z</time>
      </trkpt>
      <trkpt lat="47.587717" lon="7.835252">
        <ele>280.325024</ele>
        <time>2021-11-07T14:47:51.522Z</time>
      </trkpt>
      <trkpt lat="47.587848" lon="7.834235">
        <ele>280.091801</ele>
        <time>2021-11-07T14:48:01.015Z</time>
      </trkpt>
      <trkpt lat="47.586496" lon="7.833050">
        <ele>280.369658</ele>
        <time>2021-11-07T14:48:23.448Z</time>
      </trkpt>
      <trkpt lat="47.586276" lon="7.833601">
        <ele>281.093704</ele>
        <time>2021-11-07T14:48:31.701Z</time>
      </trkpt>
      <trkpt lat="47.585278" lon="7.832688">
        <ele>284.268163</ele>
        <time>2021-11-07T14:49:03.155Z</time>
      </trkpt>
      <trkpt lat="47.585247" lon="7.832651">
        <ele>284.375893</ele>
        <time>2021-11-07T14:49:04.455Z</time>
      </trkpt>
      <trkpt lat="47.585195" lon="7.832588">
        <ele>284.557677</ele>
        <time>2021-11-07T14:49:06.651Z</time>
      </trkpt>
      <trkpt lat="47.585027" lon="7.832425">
        <ele>285.101174</ele>
        <time>2021-11-07T14:49:12.059Z</time>
      </trkpt>
      <trkpt lat="47.584717" lon="7.832264">
        <ele>286.405646</ele>
        <time>2021-11-07T14:49:21.724Z</time>
      </trkpt>
      <trkpt lat="47.584367" lon="7.832247">
        <ele>287.899874</ele>
        <time>2021-11-07T14:49:32.825Z</time>
      </trkpt>
      <trkpt lat="47.584156" lon="7.832334">
        <ele>288.834368</ele>
        <time>2021-11-07T14:49:40.532Z</time>
      </trkpt>
      <trkpt lat="47.584029" lon="7.832543">
        <ele>289.643986</ele>
        <time>2021-11-07T14:49:47.267Z</time>
      </trkpt>
      <trkpt lat="47.583849" lon="7.832883">
        <ele>290.887954</ele>
        <time>2021-11-07T14:49:57.657Z</time>
      </trkpt>
      <trkpt lat="47.583696" lon="7.833171">
        <ele>291.943067</ele>
        <time>2021-11-07T14:50:06.363Z</time>
      </trkpt>
      <trkpt lat="47.583523" lon="7.833509">
        <ele>293.067668</ele>
        <time>2021-11-07T14:50:14.822Z</time>
      </trkpt>
      <trkpt lat="47.583401" lon="7.833658">
        <ele>293.445929</ele>
        <time>2021-11-07T14:50:18.695Z</time>
      </trkpt>
      <trkpt lat="47.583327" lon="7.833750">
        <ele>293.677042</ele>
        <time>2021-11-07T14:50:21.821Z</time>
      </trkpt>
      <trkpt lat="47.583163" lon="7.833942">
        <ele>294.177119</ele>
        <time>2021-11-07T14:50:27.314Z</time>
      </trkpt>
      <trkpt lat="47.582828" lon="7.834117">
        <ele>295.027107</ele>
        <time>2021-11-07T14:50:35.761Z</time>
      </trkpt>
      <trkpt lat="47.580816" lon="7.834599">
        <ele>298.378264</ele>
        <time>2021-11-07T14:51:19.641Z</time>
      </trkpt>
      <trkpt lat="47.580667" lon="7.834627">
        <ele>298.531144</ele>
        <time>2021-11-07T14:51:22.022Z</time>
      </trkpt>
      <trkpt lat="47.579073" lon="7.834987">
        <ele>298.485516</ele>
        <time>2021-11-07T14:51:45.983Z</time>
      </trkpt>
      <trkpt lat="47.576219" lon="7.835650">
        <ele>295.405828</ele>
        <time>2021-11-07T14:52:19.643Z</time>
      </trkpt>
      <trkpt lat="47.575959" lon="7.835718">
        <ele>295.236707</ele>
        <time>2021-11-07T14:52:22.798Z</time>
      </trkpt>
      <trkpt lat="47.575033" lon="7.835907">
        <ele>294.637942</ele>
        <time>2021-11-07T14:52:35.252Z</time>
      </trkpt>
      <trkpt lat="47.574568" lon="7.836025">
        <ele>294.568946</ele>
        <time>2021-11-07T14:52:42.239Z</time>
      </trkpt>
      <trkpt lat="47.574158" lon="7.836106">
        <ele>294.710728</ele>
        <time>2021-11-07T14:52:48.911Z</time>
      </trkpt>
      <trkpt lat="47.573815" lon="7.836215">
        <ele>294.830972</ele>
        <time>2021-11-07T14:52:56.591Z</time>
      </trkpt>
      <trkpt lat="47.573348" lon="7.836386">
        <ele>294.995862</ele>
        <time>2021-11-07T14:53:07.443Z</time>
      </trkpt>
      <trkpt lat="47.572760" lon="7.836606">
        <ele>295.277447</ele>
        <time>2021-11-07T14:53:21.054Z</time>
      </trkpt>
      <trkpt lat="47.572296" lon="7.836777">
        <ele>295.562694</ele>
        <time>2021-11-07T14:53:31.479Z</time>
      </trkpt>
      <trkpt lat="47.572139" lon="7.836834">
        <ele>295.659128</ele>
        <time>2021-11-07T14:53:34.965Z</time>
      </trkpt>
      <trkpt lat="47.571871" lon="7.836932">
        <ele>295.823809</ele>
        <time>2021-11-07T14:53:41.002Z</time>
      </trkpt>
      <trkpt lat="47.571771" lon="7.836971">
        <ele>295.885498</ele>
        <time>2021-11-07T14:53:43.239Z</time>
      </trkpt>
      <trkpt lat="47.571254" lon="7.837161">
        <ele>296.234550</ele>
        <time>2021-11-07T14:53:55.689Z</time>
      </trkpt>
      <trkpt lat="47.570985" lon="7.837265">
        <ele>296.599684</ele>
        <time>2021-11-07T14:54:02.643Z</time>
      </trkpt>
      <trkpt lat="47.570872" lon="7.837307">
        <ele>296.752697</ele>
        <time>2021-11-07T14:54:05.659Z</time>
      </trkpt>
      <trkpt lat="47.570298" lon="7.837528">
        <ele>297.531626</ele>
        <time>2021-11-07T14:54:20.981Z</time>
      </trkpt>
      <trkpt lat="47.570038" lon="7.837643">
        <ele>297.888000</ele>
        <time>2021-11-07T14:54:28.104Z</time>
      </trkpt>
      <trkpt lat="47.569907" lon="7.837696">
        <ele>298.066354</ele>
        <time>2021-11-07T14:54:31.625Z</time>
      </trkpt>
      <trkpt lat="47.569814" lon="7.837733">
        <ele>298.192827</ele>
        <time>2021-11-07T14:54:34.187Z</time>
      </trkpt>
      <trkpt lat="47.569665" lon="7.837789">
        <ele>298.394722</ele>
        <time>2021-11-07T14:54:38.151Z</time>
      </trkpt>
      <trkpt lat="47.569522" lon="7.837844">
        <ele>298.583834</ele>
        <time>2021-11-07T14:54:42.005Z</time>
      </trkpt>
      <trkpt lat="47.569310" lon="7.837922">
        <ele>298.841946</ele>
        <time>2021-11-07T14:54:47.753Z</time>
      </trkpt>
      <trkpt lat="47.568988" lon="7.838054">
        <ele>299.236720</ele>
        <time>2021-11-07T14:54:56.530Z</time>
      </trkpt>
      <trkpt lat="47.568420" lon="7.838300">
        <ele>299.935962</ele>
        <time>2021-11-07T14:55:11.808Z</time>
      </trkpt>
      <trkpt lat="47.568160" lon="7.838415">
        <ele>300.256579</ele>
        <time>2021-11-07T14:55:18.201Z</time>
      </trkpt>
      <trkpt lat="47.568042" lon="7.838436">
        <ele>300.397014</ele>
        <time>2021-11-07T14:55:20.974Z</time>
      </trkpt>
      <trkpt lat="47.567936" lon="7.838380">
        <ele>300.529988</ele>
        <time>2021-11-07T14:55:23.469Z</time>
      </trkpt>
      <trkpt lat="47.567936" lon="7.838380">
        <ele>300.529988</ele>
        <time>2021-11-07T14:55:23.472Z</time>
      </trkpt>
      <trkpt lat="47.567936" lon="7.838380">
        <ele>300.529988</ele>
        <time>2021-11-07T14:55:23.479Z</time>
      </trkpt>
      <trkpt lat="47.567846" lon="7.838609">
        <ele>300.713241</ele>
        <time>2021-11-07T14:55:26.508Z</time>
      </trkpt>
      <trkpt lat="47.567823" lon="7.838648">
        <ele>300.739359</ele>
        <time>2021-11-07T14:55:27.182Z</time>
      </trkpt>
      <trkpt lat="47.567634" lon="7.839037">
        <ele>300.981069</ele>
        <time>2021-11-07T14:55:32.497Z</time>
      </trkpt>
      <trkpt lat="47.567626" lon="7.839064">
        <ele>300.995938</ele>
        <time>2021-11-07T14:55:33.000Z</time>
      </trkpt>
      <trkpt lat="47.567564" lon="7.839283">
        <ele>301.115693</ele>
        <time>2021-11-07T14:55:35.689Z</time>
      </trkpt>
      <trkpt lat="47.567530" lon="7.839459">
        <ele>301.208004</ele>
        <time>2021-11-07T14:55:37.837Z</time>
      </trkpt>
      <trkpt lat="47.567510" lon="7.839548">
        <ele>301.255305</ele>
        <time>2021-11-07T14:55:39.021Z</time>
      </trkpt>
      <trkpt lat="47.567482" lon="7.839660">
        <ele>301.315531</ele>
        <time>2021-11-07T14:55:40.358Z</time>
      </trkpt>
      <trkpt lat="47.567481" lon="7.839664">
        <ele>301.317682</ele>
        <time>2021-11-07T14:55:40.389Z</time>
      </trkpt>
      <trkpt lat="47.567406" lon="7.839778">
        <ele>301.397968</ele>
        <time>2021-11-07T14:55:42.412Z</time>
      </trkpt>
      <trkpt lat="47.567111" lon="7.839998">
        <ele>301.644766</ele>
        <time>2021-11-07T14:55:48.403Z</time>
      </trkpt>
      <trkpt lat="47.566826" lon="7.840179">
        <ele>301.876485</ele>
        <time>2021-11-07T14:55:53.940Z</time>
      </trkpt>
      <trkpt lat="47.566594" lon="7.840278">
        <ele>302.081873</ele>
        <time>2021-11-07T14:55:58.452Z</time>
      </trkpt>
      <trkpt lat="47.566592" lon="7.840279">
        <ele>302.084275</ele>
        <time>2021-11-07T14:55:58.570Z</time>
      </trkpt>
      <trkpt lat="47.566515" lon="7.840312">
        <ele>302.175502</ele>
        <time>2021-11-07T14:55:59.907Z</time>
      </trkpt>
      <trkpt lat="47.566450" lon="7.840326">
        <ele>302.250257</ele>
        <time>2021-11-07T14:56:01.088Z</time>
      </trkpt>
      <trkpt lat="47.566350" lon="7.840350">
        <ele>302.365553</ele>
        <time>2021-11-07T14:56:02.961Z</time>
      </trkpt>
      <trkpt lat="47.566221" lon="7.840340">
        <ele>302.512572</ele>
        <time>2021-11-07T14:56:05.348Z</time>
      </trkpt>
      <trkpt lat="47.566142" lon="7.840322">
        <ele>302.603540</ele>
        <time>2021-11-07T14:56:06.572Z</time>
      </trkpt>
      <trkpt lat="47.566081" lon="7.840309">
        <ele>302.673680</ele>
        <time>2021-11-07T14:56:07.770Z</time>
      </trkpt>
      <trkpt lat="47.565906" lon="7.840272">
        <ele>302.874869</ele>
        <time>2021-11-07T14:56:11.161Z</time>
      </trkpt>
      <trkpt lat="47.565343" lon="7.840185">
        <ele>303.519109</ele>
        <time>2021-11-07T14:56:22.533Z</time>
      </trkpt>
      <trkpt lat="47.565233" lon="7.840176">
        <ele>303.644494</ele>
        <time>2021-11-07T14:56:24.834Z</time>
      </trkpt>
      <trkpt lat="47.565168" lon="7.840179">
        <ele>303.718508</ele>
        <time>2021-11-07T14:56:26.187Z</time>
      </trkpt>
      <trkpt lat="47.565125" lon="7.840192">
        <ele>303.768456</ele>
        <time>2021-11-07T14:56:27.180Z</time>
      </trkpt>
      <trkpt lat="47.565057" lon="7.840213">
        <ele>303.847511</ele>
        <time>2021-11-07T14:56:28.512Z</time>
      </trkpt>
      <trkpt lat="47.564936" lon="7.840261">
        <ele>303.990073</ele>
        <time>2021-11-07T14:56:31.228Z</time>
      </trkpt>
      <trkpt lat="47.564558" lon="7.840516">
        <ele>304.436535</ele>
        <time>2021-11-07T14:56:39.510Z</time>
      </trkpt>
      <trkpt lat="47.564534" lon="7.840532">
        <ele>304.464554</ele>
        <time>2021-11-07T14:56:40.008Z</time>
      </trkpt>
      <trkpt lat="47.564463" lon="7.840580">
        <ele>304.547642</ele>
        <time>2021-11-07T14:56:41.625Z</time>
      </trkpt>
      <trkpt lat="47.564094" lon="7.840838">
        <ele>304.982047</ele>
        <time>2021-11-07T14:56:49.283Z</time>
      </trkpt>
      <trkpt lat="47.563986" lon="7.840916">
        <ele>305.109963</ele>
        <time>2021-11-07T14:56:51.569Z</time>
      </trkpt>
      <trkpt lat="47.563941" lon="7.840948">
        <ele>305.163105</ele>
        <time>2021-11-07T14:56:52.494Z</time>
      </trkpt>
      <trkpt lat="47.563805" lon="7.841046">
        <ele>305.324114</ele>
        <time>2021-11-07T14:56:55.304Z</time>
      </trkpt>
      <trkpt lat="47.563659" lon="7.841150">
        <ele>305.496586</ele>
        <time>2021-11-07T14:56:58.192Z</time>
      </trkpt>
      <trkpt lat="47.563483" lon="7.841269">
        <ele>305.702555</ele>
        <time>2021-11-07T14:57:01.922Z</time>
      </trkpt>
      <trkpt lat="47.563300" lon="7.841391">
        <ele>305.916203</ele>
        <time>2021-11-07T14:57:05.481Z</time>
      </trkpt>
      <trkpt lat="47.563016" lon="7.841568">
        <ele>306.285084</ele>
        <time>2021-11-07T14:57:11.338Z</time>
      </trkpt>
      <trkpt lat="47.562965" lon="7.841597">
        <ele>306.351948</ele>
        <time>2021-11-07T14:57:12.316Z</time>
      </trkpt>
      <trkpt lat="47.562904" lon="7.841632">
        <ele>306.432017</ele>
        <time>2021-11-07T14:57:13.546Z</time>
      </trkpt>
      <trkpt lat="47.562626" lon="7.841835">
        <ele>306.811373</ele>
        <time>2021-11-07T14:57:19.150Z</time>
      </trkpt>
      <trkpt lat="47.562574" lon="7.841873">
        <ele>306.882342</ele>
        <time>2021-11-07T14:57:20.512Z</time>
      </trkpt>
      <trkpt lat="47.562440" lon="7.842083">
        <ele>307.121070</ele>
        <time>2021-11-07T14:57:24.130Z</time>
      </trkpt>
      <trkpt lat="47.562385" lon="7.842183">
        <ele>307.227629</ele>
        <time>2021-11-07T14:57:25.696Z</time>
      </trkpt>
      <trkpt lat="47.562300" lon="7.842326">
        <ele>307.385035</ele>
        <time>2021-11-07T14:57:28.596Z</time>
      </trkpt>
      <trkpt lat="47.562179" lon="7.842500">
        <ele>307.591415</ele>
        <time>2021-11-07T14:57:32.074Z</time>
      </trkpt>
      <trkpt lat="47.561498" lon="7.843130">
        <ele>308.501280</ele>
        <time>2021-11-07T14:57:48.785Z</time>
      </trkpt>
      <trkpt lat="47.561434" lon="7.843181">
        <ele>308.574084</ele>
        <time>2021-11-07T14:57:50.591Z</time>
      </trkpt>
      <trkpt lat="47.561434" lon="7.843181">
        <ele>308.574084</ele>
        <time>2021-11-07T14:57:50.617Z</time>
      </trkpt>
      <trkpt lat="47.561434" lon="7.843181">
        <ele>308.574084</ele>
        <time>2021-11-07T14:57:50.683Z</time>
      </trkpt>
      <trkpt lat="47.561038" lon="7.843502">
        <ele>309.026310</ele>
        <time>2021-11-07T14:57:59.383Z</time>
      </trkpt>
      <trkpt lat="47.560934" lon="7.843550">
        <ele>309.135443</ele>
        <time>2021-11-07T14:58:01.538Z</time>
      </trkpt>
      <trkpt lat="47.560812" lon="7.843560">
        <ele>309.257860</ele>
        <time>2021-11-07T14:58:03.784Z</time>
      </trkpt>
      <trkpt lat="47.560515" lon="7.843379">
        <ele>309.579602</ele>
        <time>2021-11-07T14:58:09.518Z</time>
      </trkpt>
      <trkpt lat="47.560430" lon="7.843341">
        <ele>309.668554</ele>
        <time>2021-11-07T14:58:11.320Z</time>
      </trkpt>
      <trkpt lat="47.560338" lon="7.843341">
        <ele>309.760728</ele>
        <time>2021-11-07T14:58:12.542Z</time>
      </trkpt>
      <trkpt lat="47.560209" lon="7.843393">
        <ele>309.894668</ele>
        <time>2021-11-07T14:58:15.018Z</time>
      </trkpt>
      <trkpt lat="47.560139" lon="7.843433">
        <ele>309.969834</ele>
        <time>2021-11-07T14:58:16.340Z</time>
      </trkpt>
      <trkpt lat="47.559847" lon="7.843604">
        <ele>309.953451</ele>
        <time>2021-11-07T14:58:21.505Z</time>
      </trkpt>
      <trkpt lat="47.559583" lon="7.843813">
        <ele>309.932589</ele>
        <time>2021-11-07T14:58:25.996Z</time>
      </trkpt>
      <trkpt lat="47.559158" lon="7.844233">
        <ele>309.896984</ele>
        <time>2021-11-07T14:58:33.205Z</time>
      </trkpt>
      <trkpt lat="47.559109" lon="7.844229">
        <ele>309.893563</ele>
        <time>2021-11-07T14:58:33.771Z</time>
      </trkpt>
      <trkpt lat="47.559060" lon="7.844197">
        <ele>309.889831</ele>
        <time>2021-11-07T14:58:34.431Z</time>
      </trkpt>
      <trkpt lat="47.558884" lon="7.843836">
        <ele>309.868883</ele>
        <time>2021-11-07T14:58:38.583Z</time>
      </trkpt>
      <trkpt lat="47.558555" lon="7.843392">
        <ele>309.865103</ele>
        <time>2021-11-07T14:58:44.619Z</time>
      </trkpt>
      <trkpt lat="47.558471" lon="7.843365">
        <ele>309.873005</ele>
        <time>2021-11-07T14:58:45.876Z</time>
      </trkpt>
      <trkpt lat="47.558405" lon="7.843371">
        <ele>309.879084</ele>
        <time>2021-11-07T14:58:47.045Z</time>
      </trkpt>
      <trkpt lat="47.558136" lon="7.843582">
        <ele>309.907065</ele>
        <time>2021-11-07T14:58:51.252Z</time>
      </trkpt>
      <trkpt lat="47.557967" lon="7.843683">
        <ele>309.923818</ele>
        <time>2021-11-07T14:58:53.970Z</time>
      </trkpt>
      <trkpt lat="47.557967" lon="7.843683">
        <ele>309.923818</ele>
        <time>2021-11-07T14:58:53.976Z</time>
      </trkpt>
      <trkpt lat="47.557967" lon="7.843683">
        <ele>309.923818</ele>
        <time>2021-11-07T14:58:54.049Z</time>
      </trkpt>
      <trkpt lat="47.557846" lon="7.843756">
        <ele>309.935828</ele>
        <time>2021-11-07T14:58:55.896Z</time>
      </trkpt>
      <trkpt lat="47.557759" lon="7.843839">
        <ele>309.945341</ele>
        <time>2021-11-07T14:58:57.673Z</time>
      </trkpt>
      <trkpt lat="47.557715" lon="7.843940">
        <ele>309.952799</ele>
        <time>2021-11-07T14:58:58.902Z</time>
      </trkpt>
      <trkpt lat="47.557560" lon="7.844433">
        <ele>309.986542</ele>
        <time>2021-11-07T14:59:04.861Z</time>
      </trkpt>
      <trkpt lat="47.557282" lon="7.844832">
        <ele>310.071964</ele>
        <time>2021-11-07T14:59:11.293Z</time>
      </trkpt>
      <trkpt lat="47.557134" lon="7.845095">
        <ele>310.241207</ele>
        <time>2021-11-07T14:59:15.069Z</time>
      </trkpt>
      <trkpt lat="47.556636" lon="7.845928">
        <ele>310.791215</ele>
        <time>2021-11-07T14:59:27.918Z</time>
      </trkpt>
      <trkpt lat="47.556060" lon="7.846859">
        <ele>311.473803</ele>
        <time>2021-11-07T14:59:44.045Z</time>
      </trkpt>
      <trkpt lat="47.556030" lon="7.846904">
        <ele>311.526981</ele>
        <time>2021-11-07T14:59:44.943Z</time>
      </trkpt>
      <trkpt lat="47.555990" lon="7.846965">
        <ele>311.598486</ele>
        <time>2021-11-07T14:59:46.029Z</time>
      </trkpt>
      <trkpt lat="47.555966" lon="7.846932">
        <ele>311.639273</ele>
        <time>2021-11-07T14:59:46.617Z</time>
      </trkpt>
      <trkpt lat="47.555892" lon="7.846856">
        <ele>311.751434</ele>
        <time>2021-11-07T14:59:48.173Z</time>
      </trkpt>
      <trkpt lat="47.555855" lon="7.846815">
        <ele>311.808990</ele>
        <time>2021-11-07T14:59:49.023Z</time>
      </trkpt>
      <trkpt lat="47.555727" lon="7.846715">
        <ele>311.989249</ele>
        <time>2021-11-07T14:59:52.095Z</time>
      </trkpt>
      <trkpt lat="47.555199" lon="7.846687">
        <ele>312.647416</ele>
        <time>2021-11-07T15:00:02.052Z</time>
      </trkpt>
      <trkpt lat="47.555073" lon="7.846673">
        <ele>312.804818</ele>
        <time>2021-11-07T15:00:04.600Z</time>
      </trkpt>
      <trkpt lat="47.555068" lon="7.846672">
        <ele>312.811104</ele>
        <time>2021-11-07T15:00:04.884Z</time>
      </trkpt>
      <trkpt lat="47.554995" lon="7.846915">
        <ele>313.034725</ele>
        <time>2021-11-07T15:00:08.485Z</time>
      </trkpt>
      <trkpt lat="47.554892" lon="7.847148">
        <ele>313.268895</ele>
        <time>2021-11-07T15:00:12.572Z</time>
      </trkpt>
      <trkpt lat="47.554759" lon="7.847388">
        <ele>313.529976</ele>
        <time>2021-11-07T15:00:16.930Z</time>
      </trkpt>
      <trkpt lat="47.554618" lon="7.847626">
        <ele>313.829483</ele>
        <time>2021-11-07T15:00:21.397Z</time>
      </trkpt>
      <trkpt lat="47.554465" lon="7.847858">
        <ele>314.142793</ele>
        <time>2021-11-07T15:00:26.044Z</time>
      </trkpt>
      <trkpt lat="47.554351" lon="7.848049">
        <ele>314.389074</ele>
        <time>2021-11-07T15:00:29.466Z</time>
      </trkpt>
      <trkpt lat="47.554269" lon="7.848188">
        <ele>314.567394</ele>
        <time>2021-11-07T15:00:32.117Z</time>
      </trkpt>
      <trkpt lat="47.554209" lon="7.848300">
        <ele>314.705513</ele>
        <time>2021-11-07T15:00:34.076Z</time>
      </trkpt>
      <trkpt lat="47.554078" lon="7.848543">
        <ele>315.005913</ele>
        <time>2021-11-07T15:00:38.130Z</time>
      </trkpt>
      <trkpt lat="47.554055" lon="7.848586">
        <ele>315.058910</ele>
        <time>2021-11-07T15:00:39.067Z</time>
      </trkpt>
      <trkpt lat="47.553725" lon="7.849291">
        <ele>315.887622</ele>
        <time>2021-11-07T15:00:50.342Z</time>
      </trkpt>
      <trkpt lat="47.553605" lon="7.849629">
        <ele>316.304067</ele>
        <time>2021-11-07T15:00:55.885Z</time>
      </trkpt>
      <trkpt lat="47.553537" lon="7.849904">
        <ele>316.709815</ele>
        <time>2021-11-07T15:00:59.906Z</time>
      </trkpt>
      <trkpt lat="47.553380" lon="7.850453">
        <ele>317.535859</ele>
        <time>2021-11-07T15:01:08.921Z</time>
      </trkpt>
      <trkpt lat="47.553344" lon="7.850525">
        <ele>317.659999</ele>
        <time>2021-11-07T15:01:10.197Z</time>
      </trkpt>
      <trkpt lat="47.553283" lon="7.850634">
        <ele>317.856169</ele>
        <time>2021-11-07T15:01:12.251Z</time>
      </trkpt>
      <trkpt lat="47.552876" lon="7.851300">
        <ele>319.100892</ele>
        <time>2021-11-07T15:01:26.084Z</time>
      </trkpt>
      <trkpt lat="47.552678" lon="7.851709">
        <ele>319.798221</ele>
        <time>2021-11-07T15:01:34.766Z</time>
      </trkpt>
      <trkpt lat="47.552449" lon="7.852231">
        <ele>321.135834</ele>
        <time>2021-11-07T15:01:46.065Z</time>
      </trkpt>
      <trkpt lat="47.552272" lon="7.852167">
        <ele>321.726085</ele>
        <time>2021-11-07T15:01:51.466Z</time>
      </trkpt>
      <trkpt lat="47.552097" lon="7.852063">
        <ele>322.336934</ele>
        <time>2021-11-07T15:01:56.713Z</time>
      </trkpt>
      <trkpt lat="47.552042" lon="7.852007">
        <ele>322.553133</ele>
        <time>2021-11-07T15:01:59.113Z</time>
      </trkpt>
      <trkpt lat="47.551925" lon="7.851845">
        <ele>323.071923</ele>
        <time>2021-11-07T15:02:03.378Z</time>
      </trkpt>
      <trkpt lat="47.551830" lon="7.851603">
        <ele>323.684061</ele>
        <time>2021-11-07T15:02:09.200Z</time>
      </trkpt>
      <trkpt lat="47.551660" lon="7.851725">
        <ele>324.296010</ele>
        <time>2021-11-07T15:02:14.434Z</time>
      </trkpt>
      <trkpt lat="47.551516" lon="7.851950">
        <ele>324.974002</ele>
        <time>2021-11-07T15:02:20.992Z</time>
      </trkpt>
      <trkpt lat="47.550221" lon="7.853833">
        <ele>329.734166</ele>
        <time>2021-11-07T15:03:08.284Z</time>
      </trkpt>
      <trkpt lat="47.549883" lon="7.854434">
        <ele>330.390569</ele>
        <time>2021-11-07T15:03:18.404Z</time>
      </trkpt>
      <trkpt lat="47.549566" lon="7.855225">
        <ele>330.679455</ele>
        <time>2021-11-07T15:03:32.263Z</time>
      </trkpt>
      <trkpt lat="47.549362" lon="7.855774">
        <ele>330.876260</ele>
        <time>2021-11-07T15:03:40.752Z</time>
      </trkpt>
      <trkpt lat="47.548887" lon="7.857308">
        <ele>331.185444</ele>
        <time>2021-11-07T15:04:02.860Z</time>
      </trkpt>
      <trkpt lat="47.548743" lon="7.857692">
        <ele>331.231766</ele>
        <time>2021-11-07T15:04:08.831Z</time>
      </trkpt>
      <trkpt lat="47.548701" lon="7.857893">
        <ele>331.253954</ele>
        <time>2021-11-07T15:04:11.803Z</time>
      </trkpt>
      <trkpt lat="47.548686" lon="7.857973">
        <ele>331.262710</ele>
        <time>2021-11-07T15:04:12.926Z</time>
      </trkpt>
      <trkpt lat="47.548611" lon="7.858381">
        <ele>331.307300</ele>
        <time>2021-11-07T15:04:19.140Z</time>
      </trkpt>
      <trkpt lat="47.548334" lon="7.859801">
        <ele>332.182018</ele>
        <time>2021-11-07T15:04:42.178Z</time>
      </trkpt>
      <trkpt lat="47.548049" lon="7.860929">
        <ele>333.151630</ele>
        <time>2021-11-07T15:05:03.196Z</time>
      </trkpt>
      <trkpt lat="47.547930" lon="7.861711">
        <ele>333.898646</ele>
        <time>2021-11-07T15:05:17.960Z</time>
      </trkpt>
      <trkpt lat="47.547568" lon="7.863151">
        <ele>335.559304</ele>
        <time>2021-11-07T15:05:47.087Z</time>
      </trkpt>
      <trkpt lat="47.547320" lon="7.863864">
        <ele>336.377649</ele>
        <time>2021-11-07T15:06:01.028Z</time>
      </trkpt>
      <trkpt lat="47.546974" lon="7.864423">
        <ele>336.338199</ele>
        <time>2021-11-07T15:06:11.851Z</time>
      </trkpt>
      <trkpt lat="47.546885" lon="7.864500">
        <ele>336.330257</ele>
        <time>2021-11-07T15:06:14.936Z</time>
      </trkpt>
      <trkpt lat="47.546894" lon="7.864837">
        <ele>336.312715</ele>
        <time>2021-11-07T15:06:18.821Z</time>
      </trkpt>
      <trkpt lat="47.546889" lon="7.865225">
        <ele>336.292529</ele>
        <time>2021-11-07T15:06:24.252Z</time>
      </trkpt>
      <trkpt lat="47.546819" lon="7.865489">
        <ele>336.277776</ele>
        <time>2021-11-07T15:06:28.204Z</time>
      </trkpt>
      <trkpt lat="47.546510" lon="7.865766">
        <ele>336.249945</ele>
        <time>2021-11-07T15:06:34.842Z</time>
      </trkpt>
      <trkpt lat="47.546327" lon="7.865959">
        <ele>336.165219</ele>
        <time>2021-11-07T15:06:38.359Z</time>
      </trkpt>
      <trkpt lat="47.546096" lon="7.866147">
        <ele>335.986413</ele>
        <time>2021-11-07T15:06:42.909Z</time>
      </trkpt>
      <trkpt lat="47.545363" lon="7.866781">
        <ele>335.410578</ele>
        <time>2021-11-07T15:06:56.886Z</time>
      </trkpt>
      <trkpt lat="47.545240" lon="7.866887">
        <ele>335.314040</ele>
        <time>2021-11-07T15:06:59.764Z</time>
      </trkpt>
      <trkpt lat="47.545160" lon="7.866985">
        <ele>335.243615</ele>
        <time>2021-11-07T15:07:01.722Z</time>
      </trkpt>
      <trkpt lat="47.545003" lon="7.867278">
        <ele>335.072301</ele>
        <time>2021-11-07T15:07:07.388Z</time>
      </trkpt>
      <trkpt lat="47.544829" lon="7.867444">
        <ele>335.191762</ele>
        <time>2021-11-07T15:07:12.371Z</time>
      </trkpt>
      <trkpt lat="47.544568" lon="7.867693">
        <ele>335.595176</ele>
        <time>2021-11-07T15:07:20.182Z</time>
      </trkpt>
      <trkpt lat="47.544469" lon="7.867776">
        <ele>335.742999</ele>
        <time>2021-11-07T15:07:23.041Z</time>
      </trkpt>
      <trkpt lat="47.544410" lon="7.867825">
        <ele>335.830896</ele>
        <time>2021-11-07T15:07:25.125Z</time>
      </trkpt>
      <trkpt lat="47.544246" lon="7.867967">
        <ele>336.077745</ele>
        <time>2021-11-07T15:07:29.794Z</time>
      </trkpt>
      <trkpt lat="47.544214" lon="7.867988">
        <ele>336.123227</ele>
        <time>2021-11-07T15:07:30.642Z</time>
      </trkpt>
      <trkpt lat="47.543801" lon="7.868269">
        <ele>336.713819</ele>
        <time>2021-11-07T15:07:42.238Z</time>
      </trkpt>
      <trkpt lat="47.543657" lon="7.868359">
        <ele>336.916919</ele>
        <time>2021-11-07T15:07:46.591Z</time>
      </trkpt>
      <trkpt lat="47.543201" lon="7.868657">
        <ele>337.358368</ele>
        <time>2021-11-07T15:07:57.028Z</time>
      </trkpt>
      <trkpt lat="47.543105" lon="7.868711">
        <ele>337.358368</ele>
        <time>2021-11-07T15:07:59.681Z</time>
      </trkpt>
      <trkpt lat="47.543049" lon="7.868759">
        <ele>337.358368</ele>
        <time>2021-11-07T15:08:01.064Z</time>
      </trkpt>
      <trkpt lat="47.542985" lon="7.868845">
        <ele>337.358368</ele>
        <time>2021-11-07T15:08:03.002Z</time>
      </trkpt>
      <trkpt lat="47.542722" lon="7.869201">
        <ele>337.358368</ele>
        <time>2021-11-07T15:08:10.654Z</time>
      </trkpt>
      <trkpt lat="47.542696" lon="7.869257">
        <ele>337.358368</ele>
        <time>2021-11-07T15:08:11.398Z</time>
      </trkpt>
      <trkpt lat="47.542657" lon="7.869354">
        <ele>337.358368</ele>
        <time>2021-11-07T15:08:12.806Z</time>
      </trkpt>
      <trkpt lat="47.542385" lon="7.869728">
        <ele>337.358368</ele>
        <time>2021-11-07T15:08:19.475Z</time>
      </trkpt>
    </trkseg>
  </trk>
</gpx>